Observation data for Dozier on 02/14/2017      Previous  Date  Next       Current Mesonet Observations  Soil Data  Daily Summary Page  Observations in Plain Language
KDO1 140600Z 33002KT 03/02 A3009 RMK A01 T00280021  RH  095%=      5-min Rain = 0
KDO1 140601Z 35001KT 03/02 A3009 RMK A01 T00280021  RH  095%=      5-min Rain = 0
KDO1 140602Z 02001KT 03/02 A3009 RMK A01 T00280020  RH  095%=      5-min Rain = 0
KDO1 140603Z 02000KT 03/02 A3009 RMK A01 T00280020  RH  095%=      5-min Rain = 0
KDO1 140604Z 03001KT 03/02 A3009 RMK A01 T00280020  RH  095%=      5-min Rain = 0
KDO1 140605Z 35002KT 03/02 A3009 RMK A01 T00280020  RH  095%=      5-min Rain = 0
KDO1 140606Z 33002KT 03/02 A3009 RMK A01 T00280021  RH  095%=      5-min Rain = 0
KDO1 140607Z 33003KT 03/02 A3009 RMK A01 T00280021  RH  095%=      5-min Rain = 0
KDO1 140608Z 35004KT 03/02 A3009 RMK A01 T00280021  RH  095%=      5-min Rain = 0
KDO1 140609Z 00003KT 03/02 A3009 RMK A01 T00280021  RH  095%=      5-min Rain = 0
KDO1 140610Z 36002KT 03/02 A3009 RMK A01 T00280021  RH  095%=      5-min Rain = 0
KDO1 140611Z 01002KT 03/02 A3009 RMK A01 T00280021  RH  095%=      5-min Rain = 0
KDO1 140612Z 36002KT 03/02 A3009 RMK A01 T00280020  RH  095%=      5-min Rain = 0
KDO1 140613Z 36003KT 03/02 A3009 RMK A01 T00280021  RH  095%=      5-min Rain = 0
KDO1 140614Z 35004KT 03/02 A3009 RMK A01 T00290021  RH  095%=      5-min Rain = 0
KDO1 140615Z 34005KT 03/02 A3009 RMK A01 T00290021  RH  095%=      5-min Rain = 0
KDO1 140616Z 34004KT 03/02 A3009 RMK A01 T00290021  RH  095%=      5-min Rain = 0
KDO1 140617Z 35004KT 03/02 A3009 RMK A01 T00290021  RH  095%=      5-min Rain = 0
KDO1 140618Z 34006KT 03/02 A301 RMK A01 T00290021  RH  095%=      5-min Rain = 0
KDO1 140619Z 34006KT 03/02 A301 RMK A01 T00290021  RH  095%=      5-min Rain = 0
KDO1 140620Z 34005KT 03/02 A3009 RMK A01 T00290021  RH  094%=      5-min Rain = 0
KDO1 140621Z 34005KT 03/02 A3009 RMK A01 T00290021  RH  094%=      5-min Rain = 0
KDO1 140622Z 34004KT 03/02 A3009 RMK A01 T00290021  RH  094%=      5-min Rain = 0
KDO1 140623Z 36005KT 03/02 A3009 RMK A01 T00290021  RH  094%=      5-min Rain = 0
KDO1 140624Z 00005KT 03/02 A3009 RMK A01 T00290021  RH  094%=      5-min Rain = 0
KDO1 140625Z 35005KT 03/02 A3009 RMK A01 T00290021  RH  095%=      5-min Rain = 0
KDO1 140626Z 36004KT 03/02 A3009 RMK A01 T00300022  RH  095%=      5-min Rain = 0
KDO1 140627Z 01004KT 03/02 A3009 RMK A01 T00300022  RH  095%=      5-min Rain = 0
KDO1 140628Z 01004KT 03/02 A3009 RMK A01 T00290022  RH  095%=      5-min Rain = 0
KDO1 140629Z 35003KT 03/02 A3009 RMK A01 T00290021  RH  094%=      5-min Rain = 0
KDO1 140630Z 36003KT 03/02 A3009 RMK A01 T00290021  RH  094%=      5-min Rain = 0
KDO1 140631Z 01003KT 03/02 A3009 RMK A01 T00290021  RH  094%=      5-min Rain = 0
KDO1 140632Z 00004KT 03/02 A3009 RMK A01 T00290021  RH  094%=      5-min Rain = 0
KDO1 140633Z 34004KT 03/02 A3009 RMK A01 T00290021  RH  095%=      5-min Rain = 0
KDO1 140634Z 34003KT 03/02 A3009 RMK A01 T00280021  RH  095%=      5-min Rain = 0
KDO1 140635Z 34003KT 03/02 A3009 RMK A01 T00290021  RH  095%=      5-min Rain = 0
KDO1 140636Z 34003KT 03/02 A3009 RMK A01 T00280021  RH  095%=      5-min Rain = 0
KDO1 140637Z 33003KT 03/02 A3009 RMK A01 T00290021  RH  095%=      5-min Rain = 0
KDO1 140638Z 32004KT 03/02 A3009 RMK A01 T00290021  RH  095%=      5-min Rain = 0
KDO1 140639Z 33004KT 03/02 A3009 RMK A01 T00290021  RH  095%=      5-min Rain = 0
KDO1 140640Z 33004KT 03/02 A3009 RMK A01 T00290021  RH  095%=      5-min Rain = 0
KDO1 140641Z 33004KT 03/02 A3009 RMK A01 T00290021  RH  095%=      5-min Rain = 0
KDO1 140642Z 33004KT 03/02 A3009 RMK A01 T00290022  RH  095%=      5-min Rain = 0
KDO1 140643Z 32004KT 03/02 A3009 RMK A01 T00290022  RH  095%=      5-min Rain = 0
KDO1 140644Z 32004KT 03/02 A3009 RMK A01 T00290022  RH  095%=      5-min Rain = 0
KDO1 140645Z 33005KT 03/02 A3009 RMK A01 T00290022  RH  095%=      5-min Rain = 0
KDO1 140646Z 33006KT 03/02 A3009 RMK A01 T00290022  RH  095%=      5-min Rain = 0
KDO1 140647Z 34007KT 03/02 A3009 RMK A01 T00290022  RH  095%=      5-min Rain = 0
KDO1 140648Z 34006KT 03/02 A3009 RMK A01 T00290022  RH  095%=      5-min Rain = 0
KDO1 140649Z 33006KT 03/02 A3009 RMK A01 T00290022  RH  095%=      5-min Rain = 0
KDO1 140650Z 33006KT 03/02 A3009 RMK A01 T00290022  RH  095%=      5-min Rain = 0
KDO1 140651Z 33006KT 03/02 A3009 RMK A01 T00290022  RH  095%=      5-min Rain = 0
KDO1 140652Z 33007KT 03/02 A3009 RMK A01 T00290022  RH  095%=      5-min Rain = 0
KDO1 140653Z 34006KT 03/02 A3008 RMK A01 T00290021  RH  095%=      5-min Rain = 0
KDO1 140654Z 34006KT 03/02 A3008 RMK A01 T00280021  RH  095%=      5-min Rain = 0
KDO1 140655Z 34007KT 03/02 A3008 RMK A01 T00290022  RH  095%=      5-min Rain = 0
KDO1 140656Z 34007KT 03/02 A3008 RMK A01 T00290022  RH  095%=      5-min Rain = 0
KDO1 140657Z 34006KT 03/02 A3008 RMK A01 T00280021  RH  095%=      5-min Rain = 0
KDO1 140658Z 34007KT 03/02 A3008 RMK A01 T00290022  RH  095%=      5-min Rain = 0
KDO1 140659Z 34007KT 03/02 A3008 RMK A01 T00280021  RH  095%=      5-min Rain = 0
KDO1 140700Z 35006KT 03/02 A3007 RMK A01 T00290022  RH  095%=      5-min Rain = 0
KDO1 140701Z 35007KT 03/02 A3007 RMK A01 T00290022  RH  095%=      5-min Rain = 0
KDO1 140702Z 36007KT 03/02 A3007 RMK A01 T00290022  RH  095%=      5-min Rain = 0
KDO1 140703Z 35009KT 03/02 A3007 RMK A01 T00280021  RH  095%=      5-min Rain = 0
KDO1 140704Z 36008KT 03/02 A3007 RMK A01 T00280021  RH  095%=      5-min Rain = 0
KDO1 140705Z 36008KT 03/02 A3007 RMK A01 T00280021  RH  095%=      5-min Rain = 0
KDO1 140706Z 00008KT 03/02 A3006 RMK A01 T00280021  RH  095%=      5-min Rain = 0
KDO1 140707Z 01008KT 03/02 A3006 RMK A01 T00280021  RH  095%=      5-min Rain = 0
KDO1 140708Z 00007KT 03/02 A3006 RMK A01 T00270021  RH  095%=      5-min Rain = 0
KDO1 140709Z 00005KT 03/02 A3007 RMK A01 T00280021  RH  095%=      5-min Rain = 0
KDO1 140710Z 00006KT 03/02 A3007 RMK A01 T00280021  RH  095%=      5-min Rain = 0
KDO1 140711Z 00007KT 03/02 A3007 RMK A01 T00280021  RH  095%=      5-min Rain = 0
KDO1 140712Z 36006KT 03/02 A3007 RMK A01 T00280021  RH  095%=      5-min Rain = 0
KDO1 140713Z 36005KT 03/02 A3007 RMK A01 T00280021  RH  095%=      5-min Rain = 0
KDO1 140714Z 36006KT 03/02 A3007 RMK A01 T00280021  RH  095%=      5-min Rain = 0
KDO1 140715Z 35005KT 03/02 A3007 RMK A01 T00280021  RH  095%=      5-min Rain = 0
KDO1 140716Z 36005KT 03/02 A3007 RMK A01 T00280021  RH  095%=      5-min Rain = 0
KDO1 140717Z 36005KT 03/02 A3007 RMK A01 T00280021  RH  095%=      5-min Rain = 0
KDO1 140718Z 36006KT 03/02 A3007 RMK A01 T00280021  RH  095%=      5-min Rain = 0
KDO1 140719Z 00007KT 03/02 A3007 RMK A01 T00280021  RH  095%=      5-min Rain = 0
KDO1 140720Z 00006KT 03/02 A3007 RMK A01 T00280021  RH  095%=      5-min Rain = 0
KDO1 140721Z 36005KT 03/02 A3007 RMK A01 T00280021  RH  095%=      5-min Rain = 0
KDO1 140722Z 00006KT 03/02 A3007 RMK A01 T00280021  RH  096%=      5-min Rain = 0
KDO1 140723Z 36007KT 03/02 A3007 RMK A01 T00280021  RH  096%=      5-min Rain = 0
KDO1 140724Z 00008KT 03/02 A3007 RMK A01 T00280021  RH  095%=      5-min Rain = 0
KDO1 140725Z 36006KT 03/02 A3007 RMK A01 T00280021  RH  095%=      5-min Rain = 0
KDO1 140726Z 00007KT 03/02 A3007 RMK A01 T00270021  RH  095%=      5-min Rain = 0
KDO1 140727Z 36006KT 03/02 A3007 RMK A01 T00280021  RH  095%=      5-min Rain = 0
KDO1 140728Z 36006KT 03/02 A3007 RMK A01 T00280021  RH  095%=      5-min Rain = 0
KDO1 140729Z 36006KT 03/02 A3007 RMK A01 T00280021  RH  095%=      5-min Rain = 0
KDO1 140730Z 00005KT 03/02 A3007 RMK A01 T00280021  RH  095%=      5-min Rain = 0
KDO1 140731Z 00006KT 03/02 A3007 RMK A01 T00280021  RH  095%=      5-min Rain = 0
KDO1 140732Z 36005KT 03/02 A3007 RMK A01 T00280021  RH  095%=      5-min Rain = 0
KDO1 140733Z 35003KT 03/02 A3007 RMK A01 T00280021  RH  095%=      5-min Rain = 0
KDO1 140734Z 35004KT 03/02 A3007 RMK A01 T00280021  RH  095%=      5-min Rain = 0
KDO1 140735Z 34004KT 03/02 A3007 RMK A01 T00280021  RH  095%=      5-min Rain = 0
KDO1 140736Z 34004KT 03/02 A3007 RMK A01 T00280021  RH  095%=      5-min Rain = 0
KDO1 140737Z 34005KT 03/02 A3007 RMK A01 T00280021  RH  095%=      5-min Rain = 0
KDO1 140738Z 34005KT 03/02 A3008 RMK A01 T00280021  RH  095%=      5-min Rain = 0
KDO1 140739Z 34004KT 03/02 A3007 RMK A01 T00280020  RH  095%=      5-min Rain = 0
KDO1 140740Z 34005KT 03/02 A3007 RMK A01 T00280020  RH  095%=      5-min Rain = 0
KDO1 140741Z 34005KT 03/02 A3007 RMK A01 T00280020  RH  095%=      5-min Rain = 0
KDO1 140742Z 33005KT 03/02 A3007 RMK A01 T00280020  RH  095%=      5-min Rain = 0
KDO1 140743Z 33006KT 03/02 A3007 RMK A01 T00280020  RH  095%=      5-min Rain = 0
KDO1 140744Z 33005KT 03/02 A3007 RMK A01 T00280020  RH  095%=      5-min Rain = 0
KDO1 140745Z 33006KT 03/02 A3007 RMK A01 T00280021  RH  095%=      5-min Rain = 0
KDO1 140746Z 32006KT 03/02 A3008 RMK A01 T00280021  RH  095%=      5-min Rain = 0
KDO1 140747Z 32006KT 03/02 A3008 RMK A01 T00280020  RH  095%=      5-min Rain = 0
KDO1 140748Z 32007KT 03/02 A3008 RMK A01 T00280020  RH  095%=      5-min Rain = 0
KDO1 140749Z 32006KT 03/02 A3008 RMK A01 T00280020  RH  095%=      5-min Rain = 0
KDO1 140750Z 33006KT 03/02 A3007 RMK A01 T00280020  RH  095%=      5-min Rain = 0
KDO1 140751Z 34007KT 03/02 A3007 RMK A01 T00280020  RH  095%=      5-min Rain = 0
KDO1 140752Z 34005KT 03/02 A3007 RMK A01 T00280020  RH  095%=      5-min Rain = 0
KDO1 140753Z 34006KT 03/02 A3007 RMK A01 T00280020  RH  095%=      5-min Rain = 0
KDO1 140754Z 35006KT 03/02 A3007 RMK A01 T00280020  RH  095%=      5-min Rain = 0
KDO1 140755Z 34005KT 03/02 A3007 RMK A01 T00280020  RH  095%=      5-min Rain = 0
KDO1 140756Z 34005KT 03/02 A3007 RMK A01 T00280021  RH  095%=      5-min Rain = 0
KDO1 140757Z 34006KT 03/02 A3007 RMK A01 T00290021  RH  095%=      5-min Rain = 0
KDO1 140758Z 34007KT 03/02 A3007 RMK A01 T00290021  RH  095%=      5-min Rain = 0
KDO1 140759Z 33006KT 03/02 A3007 RMK A01 T00290021  RH  095%=      5-min Rain = 0
KDO1 140800Z 33005KT 03/02 A3007 RMK A01 T00290021  RH  095%=      5-min Rain = 0
KDO1 140801Z 33007KT 03/02 A3008 RMK A01 T00290021  RH  095%=      5-min Rain = 0
KDO1 140802Z 32006KT 03/02 A3008 RMK A01 T00290021  RH  095%=      5-min Rain = 0
KDO1 140803Z 33005KT 03/02 A3008 RMK A01 T00280021  RH  095%=      5-min Rain = 0
KDO1 140804Z 32006KT 03/02 A3008 RMK A01 T00290021  RH  095%=      5-min Rain = 0
KDO1 140805Z 33007KT 03/02 A3008 RMK A01 T00280021  RH  095%=      5-min Rain = 0
KDO1 140806Z 32007KT 03/02 A3008 RMK A01 T00290021  RH  095%=      5-min Rain = 0
KDO1 140807Z 32007KT 03/02 A3008 RMK A01 T00290021  RH  095%=      5-min Rain = 0
KDO1 140808Z 32009KT 03/02 A3007 RMK A01 T00290021  RH  095%=      5-min Rain = 0
KDO1 140809Z 33008KT 03/02 A3007 RMK A01 T00290021  RH  095%=      5-min Rain = 0
KDO1 140810Z 33009KT 03/02 A3007 RMK A01 T00290021  RH  094%=      5-min Rain = 0
KDO1 140811Z 33009KT 03/02 A3007 RMK A01 T00280020  RH  095%=      5-min Rain = 0
KDO1 140812Z 33008KT 03/02 A3007 RMK A01 T00290021  RH  095%=      5-min Rain = 0
KDO1 140813Z 34008KT 03/02 A3007 RMK A01 T00290021  RH  095%=      5-min Rain = 0
KDO1 140814Z 33008KT 03/02 A3007 RMK A01 T00290021  RH  095%=      5-min Rain = 0
KDO1 140815Z 33008KT 03/02 A3007 RMK A01 T00290021  RH  095%=      5-min Rain = 0
KDO1 140816Z 34008KT 03/02 A3007 RMK A01 T00280021  RH  095%=      5-min Rain = 0
KDO1 140817Z 34007KT 03/02 A3007 RMK A01 T00290021  RH  095%=      5-min Rain = 0
KDO1 140818Z 34008KT 03/02 A3006 RMK A01 T00280021  RH  095%=      5-min Rain = 0
KDO1 140819Z 34007KT 03/02 A3006 RMK A01 T00280021  RH  095%=      5-min Rain = 0
KDO1 140820Z 34009KT 03/02 A3006 RMK A01 T00280021  RH  095%=      5-min Rain = 0
KDO1 140821Z 35008KT 03/02 A3006 RMK A01 T00280021  RH  095%=      5-min Rain = 0
KDO1 140822Z 35008KT 03/02 A3006 RMK A01 T00280021  RH  095%=      5-min Rain = 0
KDO1 140823Z 34008KT 03/02 A3006 RMK A01 T00280021  RH  095%=      5-min Rain = 0
KDO1 140824Z 35010KT 03/02 A3006 RMK A01 T00280021  RH  095%=      5-min Rain = 0
KDO1 140825Z 35010KT 03/02 A3006 RMK A01 T00280021  RH  095%=      5-min Rain = 0
KDO1 140826Z 36009KT 03/02 A3005 RMK A01 T00280021  RH  095%=      5-min Rain = 0
KDO1 140827Z 36009KT 03/02 A3005 RMK A01 T00280021  RH  095%=      5-min Rain = 0
KDO1 140828Z 35009KT 03/02 A3005 RMK A01 T00280021  RH  095%=      5-min Rain = 0
KDO1 140829Z 36008KT 03/02 A3005 RMK A01 T00280021  RH  095%=      5-min Rain = 0
KDO1 140830Z 36008KT 03/02 A3005 RMK A01 T00280021  RH  095%=      5-min Rain = 0
KDO1 140831Z 35007KT 03/02 A3005 RMK A01 T00280021  RH  095%=      5-min Rain = 0
KDO1 140832Z 36008KT 03/02 A3005 RMK A01 T00270021  RH  095%=      5-min Rain = 0
KDO1 140833Z 35007KT 03/02 A3005 RMK A01 T00280021  RH  095%=      5-min Rain = 0
KDO1 140834Z 35008KT 03/02 A3006 RMK A01 T00280021  RH  095%=      5-min Rain = 0
KDO1 140835Z 35005KT 03/02 A3006 RMK A01 T00280021  RH  095%=      5-min Rain = 0
KDO1 140836Z 35007KT 03/02 A3006 RMK A01 T00280021  RH  096%=      5-min Rain = 0
KDO1 140837Z 35006KT 03/02 A3006 RMK A01 T00280021  RH  096%=      5-min Rain = 0
KDO1 140838Z 36008KT 03/02 A3006 RMK A01 T00280021  RH  096%=      5-min Rain = 0
KDO1 140839Z 35007KT 03/02 A3005 RMK A01 T00280021  RH  096%=      5-min Rain = 0
KDO1 140840Z 35008KT 03/02 A3005 RMK A01 T00270021  RH  096%=      5-min Rain = 0
KDO1 140841Z 34008KT 03/02 A3005 RMK A01 T00280021  RH  096%=      5-min Rain = 0
KDO1 140842Z 35007KT 03/02 A3006 RMK A01 T00280021  RH  096%=      5-min Rain = 0
KDO1 140843Z 34006KT 03/02 A3006 RMK A01 T00280022  RH  096%=      5-min Rain = 0
KDO1 140844Z 34006KT 03/02 A3006 RMK A01 T00280022  RH  096%=      5-min Rain = 0
KDO1 140845Z 34008KT 03/02 A3006 RMK A01 T00280022  RH  096%=      5-min Rain = 0
KDO1 140846Z 35008KT 03/02 A3006 RMK A01 T00280022  RH  096%=      5-min Rain = 0
KDO1 140847Z 34007KT 03/02 A3006 RMK A01 T00280022  RH  096%=      5-min Rain = 0
KDO1 140848Z 35007KT 03/02 A3005 RMK A01 T00280022  RH  096%=      5-min Rain = 0
KDO1 140849Z 35007KT 03/02 A3005 RMK A01 T00280022  RH  096%=      5-min Rain = 0
KDO1 140850Z 35008KT 03/02 A3005 RMK A01 T00280022  RH  096%=      5-min Rain = 0
KDO1 140851Z 35006KT 03/02 A3005 RMK A01 T00280022  RH  096%=      5-min Rain = 0
KDO1 140852Z 36008KT 03/02 A3005 RMK A01 T00280022  RH  096%=      5-min Rain = 0
KDO1 140853Z 36008KT 03/02 A3005 RMK A01 T00280022  RH  096%=      5-min Rain = 0
KDO1 140854Z 36008KT 03/02 A3005 RMK A01 T00280022  RH  096%=      5-min Rain = 0
KDO1 140855Z 00008KT 03/02 A3005 RMK A01 T00280022  RH  096%=      5-min Rain = 0
KDO1 140856Z 36007KT 03/02 A3005 RMK A01 T00280022  RH  096%=      5-min Rain = 0
KDO1 140857Z 35007KT 03/02 A3005 RMK A01 T00280022  RH  096%=      5-min Rain = 0
KDO1 140858Z 36006KT 03/02 A3005 RMK A01 T00280022  RH  096%=      5-min Rain = 0
KDO1 140859Z 36007KT 03/02 A3005 RMK A01 T00280022  RH  096%=      5-min Rain = 0
KDO1 140900Z 35006KT 03/02 A3005 RMK A01 T00280022  RH  096%=      5-min Rain = 0
KDO1 140901Z 35008KT 03/02 A3005 RMK A01 T00280022  RH  096%=      5-min Rain = 0
KDO1 140902Z 35007KT 03/02 A3005 RMK A01 T00280022  RH  096%=      5-min Rain = 0
KDO1 140903Z 35007KT 03/02 A3004 RMK A01 T00280022  RH  096%=      5-min Rain = 0
KDO1 140904Z 35008KT 03/02 A3004 RMK A01 T00280022  RH  096%=      5-min Rain = 0
KDO1 140905Z 35007KT 03/02 A3004 RMK A01 T00280022  RH  096%=      5-min Rain = 0
KDO1 140906Z 35007KT 03/02 A3004 RMK A01 T00280023  RH  096%=      5-min Rain = 0
KDO1 140907Z 35006KT 03/02 A3005 RMK A01 T00280023  RH  096%=      5-min Rain = 0
KDO1 140908Z 35006KT 03/02 A3005 RMK A01 T00280022  RH  096%=      5-min Rain = 0
KDO1 140909Z 35008KT 03/02 A3005 RMK A01 T00280022  RH  096%=      5-min Rain = 0
KDO1 140910Z 35007KT 03/02 A3005 RMK A01 T00280023  RH  096%=      5-min Rain = 0
KDO1 140911Z 35007KT 03/02 A3004 RMK A01 T00280023  RH  096%=      5-min Rain = 0
KDO1 140912Z 35009KT 03/02 A3004 RMK A01 T00280022  RH  096%=      5-min Rain = 0
KDO1 140913Z 35008KT 03/02 A3004 RMK A01 T00280022  RH  096%=      5-min Rain = 0
KDO1 140914Z 35008KT 03/02 A3004 RMK A01 T00280022  RH  096%=      5-min Rain = 0
KDO1 140915Z 36008KT 03/02 A3004 RMK A01 T00280022  RH  096%=      5-min Rain = 0
KDO1 140916Z 36009KT 03/02 A3004 RMK A01 T00280023  RH  096%=      5-min Rain = 0
KDO1 140917Z 36008KT 03/02 A3004 RMK A01 T00290023  RH  096%=      5-min Rain = 0
KDO1 140918Z 36007KT 03/02 A3004 RMK A01 T00290023  RH  096%=      5-min Rain = 0
KDO1 140919Z 36006KT 03/02 A3004 RMK A01 T00290023  RH  096%=      5-min Rain = 0
KDO1 140920Z 36010KT 03/02 A3004 RMK A01 T00280023  RH  096%=      5-min Rain = 0
KDO1 140921Z 36007KT 03/02 A3004 RMK A01 T00280022  RH  096%=      5-min Rain = 0
KDO1 140922Z 00006KT 03/02 A3004 RMK A01 T00290023  RH  096%=      5-min Rain = 0
KDO1 140923Z 35008KT 03/02 A3004 RMK A01 T00290023  RH  096%=      5-min Rain = 0
KDO1 140924Z 36007KT 03/02 A3004 RMK A01 T00290023  RH  096%=      5-min Rain = 0
KDO1 140925Z 35007KT 03/02 A3004 RMK A01 T00290023  RH  096%=      5-min Rain = 0
KDO1 140926Z 36008KT 03/02 A3004 RMK A01 T00290023  RH  096%=      5-min Rain = 0
KDO1 140927Z 35007KT 03/02 A3004 RMK A01 T00290023  RH  096%=      5-min Rain = 0
KDO1 140928Z 35007KT 03/02 A3004 RMK A01 T00290023  RH  096%=      5-min Rain = 0
KDO1 140929Z 35008KT 03/02 A3004 RMK A01 T00290023  RH  096%=      5-min Rain = 0
KDO1 140930Z 36008KT 03/02 A3004 RMK A01 T00290023  RH  096%=      5-min Rain = 0
KDO1 140931Z 35007KT 03/02 A3004 RMK A01 T00290023  RH  096%=      5-min Rain = 0
KDO1 140932Z 35009KT 03/02 A3003 RMK A01 T00290023  RH  096%=      5-min Rain = 0
KDO1 140933Z 00007KT 03/02 A3003 RMK A01 T00290023  RH  096%=      5-min Rain = 0
KDO1 140934Z 36006KT 03/02 A3003 RMK A01 T00290023  RH  096%=      5-min Rain = 0
KDO1 140935Z 35007KT 03/02 A3003 RMK A01 T00290023  RH  096%=      5-min Rain = 0
KDO1 140936Z 35009KT 03/02 A3003 RMK A01 T00300024  RH  096%=      5-min Rain = 0
KDO1 140937Z 35008KT 03/02 A3003 RMK A01 T00290023  RH  096%=      5-min Rain = 0
KDO1 140938Z 35008KT 03/02 A3003 RMK A01 T00300023  RH  096%=      5-min Rain = 0
KDO1 140939Z 35008KT 03/02 A3003 RMK A01 T00290023  RH  096%=      5-min Rain = 0
KDO1 140940Z 36008KT 03/02 A3003 RMK A01 T00290023  RH  096%=      5-min Rain = 0
KDO1 140941Z 36007KT 03/02 A3003 RMK A01 T00300023  RH  096%=      5-min Rain = 0
KDO1 140942Z 35008KT 03/02 A3003 RMK A01 T00290023  RH  096%=      5-min Rain = 0
KDO1 140943Z 36008KT 03/02 A3003 RMK A01 T00300023  RH  096%=      5-min Rain = 0
KDO1 140944Z 36008KT 03/02 A3003 RMK A01 T00290023  RH  096%=      5-min Rain = 0
KDO1 140945Z 36009KT 03/02 A3003 RMK A01 T00290023  RH  096%=      5-min Rain = 0
KDO1 140946Z 00009KT 03/02 A3003 RMK A01 T00290023  RH  095%=      5-min Rain = 0
KDO1 140947Z 36010KT 03/02 A3003 RMK A01 T00290023  RH  095%=      5-min Rain = 0
KDO1 140948Z 00011KT 03/02 A3003 RMK A01 T00300023  RH  095%=      5-min Rain = 0
KDO1 140949Z 36010KT 03/02 A3003 RMK A01 T00300023  RH  095%=      5-min Rain = 0
KDO1 140950Z 35007KT 03/02 A3003 RMK A01 T00290023  RH  095%=      5-min Rain = 0
KDO1 140951Z 36010KT 03/02 A3003 RMK A01 T00300023  RH  095%=      5-min Rain = 0
KDO1 140952Z 35010KT 03/02 A3003 RMK A01 T00290023  RH  095%=      5-min Rain = 0
KDO1 140953Z 36010KT 03/02 A3003 RMK A01 T00290023  RH  095%=      5-min Rain = 0
KDO1 140954Z 36010KT 03/02 A3003 RMK A01 T00300023  RH  095%=      5-min Rain = 0
KDO1 140955Z 36008KT 03/02 A3003 RMK A01 T00290022  RH  095%=      5-min Rain = 0
KDO1 140956Z 35007KT 03/02 A3003 RMK A01 T00300023  RH  095%=      5-min Rain = 0
KDO1 140957Z 35008KT 03/02 A3003 RMK A01 T00290023  RH  095%=      5-min Rain = 0
KDO1 140958Z 35008KT 03/02 A3004 RMK A01 T00300023  RH  095%=      5-min Rain = 0
KDO1 140959Z 36007KT 03/02 A3004 RMK A01 T00300023  RH  095%=      5-min Rain = 0
KDO1 141000Z 35008KT 03/02 A3004 RMK A01 T00300023  RH  095%=      5-min Rain = 0
KDO1 141001Z 35007KT 03/02 A3004 RMK A01 T00300023  RH  095%=      5-min Rain = 0
KDO1 141002Z 35008KT 03/02 A3004 RMK A01 T00300023  RH  095%=      5-min Rain = 0
KDO1 141003Z 35008KT 03/02 A3004 RMK A01 T00300023  RH  095%=      5-min Rain = 0
KDO1 141004Z 00009KT 03/02 A3004 RMK A01 T00300023  RH  095%=      5-min Rain = 0
KDO1 141005Z 36008KT 03/02 A3004 RMK A01 T00300023  RH  095%=      5-min Rain = 0
KDO1 141006Z 36011KT 03/02 A3004 RMK A01 T00300023  RH  095%=      5-min Rain = 0
KDO1 141007Z 00009KT 03/02 A3005 RMK A01 T00300023  RH  095%=      5-min Rain = 0
KDO1 141008Z 36007KT 03/02 A3005 RMK A01 T00300023  RH  095%=      5-min Rain = 0
KDO1 141009Z 36008KT 03/02 A3005 RMK A01 T00300023  RH  095%=      5-min Rain = 0
KDO1 141010Z 35008KT 03/02 A3005 RMK A01 T00300023  RH  095%=      5-min Rain = 0
KDO1 141011Z 35008KT 03/02 A3005 RMK A01 T00300023  RH  095%=      5-min Rain = 0
KDO1 141012Z 35008KT 03/02 A3005 RMK A01 T00300024  RH  095%=      5-min Rain = 0
KDO1 141013Z 35008KT 03/02 A3005 RMK A01 T00300023  RH  095%=      5-min Rain = 0
KDO1 141014Z 35007KT 03/02 A3005 RMK A01 T00300023  RH  095%=      5-min Rain = 0
KDO1 141015Z 35009KT 03/02 A3005 RMK A01 T00300023  RH  095%=      5-min Rain = 0
KDO1 141016Z 34008KT 03/02 A3005 RMK A01 T00310024  RH  095%=      5-min Rain = 0
KDO1 141017Z 35006KT 03/02 A3005 RMK A01 T00300023  RH  095%=      5-min Rain = 0
KDO1 141018Z 35007KT 03/02 A3004 RMK A01 T00310024  RH  095%=      5-min Rain = 0
KDO1 141019Z 35008KT 03/02 A3004 RMK A01 T00310024  RH  095%=      5-min Rain = 0
KDO1 141020Z 35007KT 03/02 A3004 RMK A01 T00310024  RH  095%=      5-min Rain = 0
KDO1 141021Z 34007KT 03/02 A3004 RMK A01 T00310024  RH  095%=      5-min Rain = 0
KDO1 141022Z 34007KT 03/02 A3005 RMK A01 T00310024  RH  095%=      5-min Rain = 0
KDO1 141023Z 34007KT 03/02 A3005 RMK A01 T00310024  RH  095%=      5-min Rain = 0
KDO1 141024Z 35009KT 03/02 A3005 RMK A01 T00310024  RH  095%=      5-min Rain = 0
KDO1 141025Z 35009KT 03/02 A3005 RMK A01 T00310024  RH  095%=      5-min Rain = 0
KDO1 141026Z 35009KT 03/02 A3005 RMK A01 T00310024  RH  095%=      5-min Rain = 0
KDO1 141027Z 35009KT 03/02 A3004 RMK A01 T00310024  RH  095%=      5-min Rain = 0
KDO1 141028Z 35007KT 03/02 A3004 RMK A01 T00310024  RH  095%=      5-min Rain = 0
KDO1 141029Z 35008KT 03/02 A3004 RMK A01 T00310024  RH  095%=      5-min Rain = 0
KDO1 141030Z 35008KT 03/02 A3004 RMK A01 T00310024  RH  095%=      5-min Rain = 0
KDO1 141031Z 35009KT 03/02 A3004 RMK A01 T00310024  RH  095%=      5-min Rain = 0
KDO1 141032Z 36009KT 03/02 A3004 RMK A01 T00300024  RH  095%=      5-min Rain = 0
KDO1 141033Z 36010KT 03/02 A3004 RMK A01 T00300024  RH  095%=      5-min Rain = 0
KDO1 141034Z 36008KT 03/02 A3004 RMK A01 T00300024  RH  095%=      5-min Rain = 0
KDO1 141035Z 36009KT 03/02 A3004 RMK A01 T00300024  RH  095%=      5-min Rain = 0
KDO1 141036Z 35009KT 03/02 A3004 RMK A01 T00300024  RH  095%=      5-min Rain = 0
KDO1 141037Z 35008KT 03/02 A3004 RMK A01 T00300023  RH  095%=      5-min Rain = 0
KDO1 141038Z 35009KT 03/02 A3004 RMK A01 T00300023  RH  095%=      5-min Rain = 0
KDO1 141039Z 35008KT 03/02 A3004 RMK A01 T00300024  RH  095%=      5-min Rain = 0
KDO1 141040Z 35008KT 03/02 A3004 RMK A01 T00300024  RH  095%=      5-min Rain = 0
KDO1 141041Z 35008KT 03/02 A3004 RMK A01 T00300024  RH  095%=      5-min Rain = 0
KDO1 141042Z 00007KT 03/02 A3004 RMK A01 T00300024  RH  095%=      5-min Rain = 0
KDO1 141043Z 00009KT 03/02 A3004 RMK A01 T00300024  RH  095%=      5-min Rain = 0
KDO1 141044Z 35010KT 03/02 A3004 RMK A01 T00300024  RH  095%=      5-min Rain = 0
KDO1 141045Z 35009KT 03/02 A3004 RMK A01 T00300024  RH  095%=      5-min Rain = 0
KDO1 141046Z 35008KT 03/02 A3004 RMK A01 T00300024  RH  095%=      5-min Rain = 0
KDO1 141047Z 35010KT 03/02 A3004 RMK A01 T00300024  RH  095%=      5-min Rain = 0
KDO1 141048Z 36010KT 03/02 A3004 RMK A01 T00300023  RH  095%=      5-min Rain = 0
KDO1 141049Z 36009KT 03/02 A3004 RMK A01 T00300024  RH  095%=      5-min Rain = 0
KDO1 141050Z 35009KT 03/02 A3004 RMK A01 T00310024  RH  095%=      5-min Rain = 0
KDO1 141051Z 36010KT 03/02 A3004 RMK A01 T00300023  RH  095%=      5-min Rain = 0
KDO1 141052Z 35009KT 03/02 A3004 RMK A01 T00300023  RH  095%=      5-min Rain = 0
KDO1 141053Z 35008KT 03/02 A3004 RMK A01 T00300023  RH  095%=      5-min Rain = 0
KDO1 141054Z 35010KT 03/02 A3004 RMK A01 T00300023  RH  095%=      5-min Rain = 0
KDO1 141055Z 35008KT 03/02 A3004 RMK A01 T00300023  RH  095%=      5-min Rain = 0
KDO1 141056Z 35009KT 03/02 A3004 RMK A01 T00300023  RH  095%=      5-min Rain = 0
KDO1 141057Z 35009KT 03/02 A3004 RMK A01 T00300023  RH  095%=      5-min Rain = 0
KDO1 141058Z 34009KT 03/02 A3005 RMK A01 T00310024  RH  095%=      5-min Rain = 0
KDO1 141059Z 36009G14KT 03/02 A3005 RMK A01 T00300023  RH  095%=      5-min Rain = 0
KDO1 141100Z 35010KT 03/02 A3005 RMK A01 T00300023  RH  095%=      5-min Rain = 0
KDO1 141101Z 36010KT 03/02 A3005 RMK A01 T00300023  RH  095%=      5-min Rain = 0
KDO1 141102Z 35010G15KT 03/02 A3005 RMK A01 T00300023  RH  095%=      5-min Rain = 0
KDO1 141103Z 36011KT 03/02 A3005 RMK A01 T00300023  RH  095%=      5-min Rain = 0
KDO1 141104Z 35009KT 03/02 A3005 RMK A01 T00300023  RH  095%=      5-min Rain = 0
KDO1 141105Z 35009KT 03/02 A3005 RMK A01 T00310023  RH  095%=      5-min Rain = 0
KDO1 141106Z 35009KT 03/02 A3005 RMK A01 T00300023  RH  095%=      5-min Rain = 0
KDO1 141107Z 35009KT 03/02 A3005 RMK A01 T00300023  RH  095%=      5-min Rain = 0
KDO1 141108Z 35009KT 03/02 A3005 RMK A01 T00300022  RH  095%=      5-min Rain = 0
KDO1 141109Z 00010KT 03/02 A3005 RMK A01 T00300023  RH  095%=      5-min Rain = 0
KDO1 141110Z 00009KT 03/02 A3005 RMK A01 T00300023  RH  095%=      5-min Rain = 0
KDO1 141111Z 00008KT 03/02 A3005 RMK A01 T00300023  RH  095%=      5-min Rain = 0
KDO1 141112Z 00009KT 03/02 A3005 RMK A01 T00300022  RH  095%=      5-min Rain = 0
KDO1 141113Z 36008KT 03/02 A3005 RMK A01 T00300022  RH  095%=      5-min Rain = 0
KDO1 141114Z 36010KT 03/02 A3005 RMK A01 T00300022  RH  095%=      5-min Rain = 0
KDO1 141115Z 36008KT 03/02 A3005 RMK A01 T00300022  RH  095%=      5-min Rain = 0
KDO1 141116Z 35009KT 03/02 A3005 RMK A01 T00300022  RH  095%=      5-min Rain = 0
KDO1 141117Z 36009G14KT 03/02 A3005 RMK A01 T00300022  RH  095%=      5-min Rain = 0
KDO1 141118Z 00013KT 03/02 A3005 RMK A01 T00300022  RH  094%=      5-min Rain = 0
KDO1 141119Z 36012KT 03/02 A3005 RMK A01 T00300021  RH  094%=      5-min Rain = 0
KDO1 141120Z 00012KT 03/02 A3005 RMK A01 T00290020  RH  094%=      5-min Rain = 0
KDO1 141121Z 01011KT 03/02 A3005 RMK A01 T00290020  RH  094%=      5-min Rain = 0
KDO1 141122Z 36010KT 03/02 A3005 RMK A01 T00290020  RH  094%=      5-min Rain = 0
KDO1 141123Z 36009KT 03/02 A3004 RMK A01 T00290020  RH  094%=      5-min Rain = 0
KDO1 141124Z 36008KT 03/02 A3004 RMK A01 T00290020  RH  094%=      5-min Rain = 0
KDO1 141125Z 36009KT 03/02 A3004 RMK A01 T00290021  RH  094%=      5-min Rain = 0
KDO1 141126Z 36010G15KT 03/02 A3004 RMK A01 T00290020  RH  094%=      5-min Rain = 0
KDO1 141127Z 35009KT 03/02 A3004 RMK A01 T00290020  RH  094%=      5-min Rain = 0
KDO1 141128Z 36009KT 03/02 A3004 RMK A01 T00290021  RH  094%=      5-min Rain = 0
KDO1 141129Z 36011KT 03/02 A3004 RMK A01 T00290021  RH  094%=      5-min Rain = 0
KDO1 141130Z 35010KT 03/02 A3004 RMK A01 T00280020  RH  094%=      5-min Rain = 0
KDO1 141131Z 35012KT 03/02 A3004 RMK A01 T00280020  RH  094%=      5-min Rain = 0
KDO1 141132Z 35011KT 03/02 A3004 RMK A01 T00290021  RH  095%=      5-min Rain = 0
KDO1 141133Z 36010KT 03/02 A3004 RMK A01 T00280021  RH  095%=      5-min Rain = 0
KDO1 141134Z 35010KT 03/02 A3004 RMK A01 T00280021  RH  095%=      5-min Rain = 0
KDO1 141135Z 36010KT 03/02 A3004 RMK A01 T00290021  RH  095%=      5-min Rain = 0
KDO1 141136Z 35010KT 03/02 A3004 RMK A01 T00280020  RH  095%=      5-min Rain = 0
KDO1 141137Z 36009KT 03/02 A3004 RMK A01 T00280021  RH  095%=      5-min Rain = 0
KDO1 141138Z 35009KT 03/02 A3004 RMK A01 T00280021  RH  095%=      5-min Rain = 0
KDO1 141139Z 35009KT 03/02 A3004 RMK A01 T00280021  RH  095%=      5-min Rain = 0
KDO1 141140Z 35012KT 03/02 A3004 RMK A01 T00280021  RH  095%=      5-min Rain = 0
KDO1 141141Z 36012KT 03/02 A3004 RMK A01 T00280021  RH  095%=      5-min Rain = 0
KDO1 141142Z 36009KT 03/02 A3004 RMK A01 T00270021  RH  095%=      5-min Rain = 0
KDO1 141143Z 36010G15KT 03/02 A3004 RMK A01 T00270021  RH  095%=      5-min Rain = 0
KDO1 141144Z 36010KT 03/02 A3004 RMK A01 T00270020  RH  095%=      5-min Rain = 0
KDO1 141145Z 36012KT 03/02 A3004 RMK A01 T00270021  RH  095%=      5-min Rain = 0
KDO1 141146Z 36011KT 03/02 A3004 RMK A01 T00270021  RH  096%=      5-min Rain = 0
KDO1 141147Z 36010KT 03/02 A3004 RMK A01 T00270020  RH  095%=      5-min Rain = 0
KDO1 141148Z 00009KT 03/02 A3004 RMK A01 T00270020  RH  096%=      5-min Rain = 0
KDO1 141149Z 36008KT 03/02 A3004 RMK A01 T00270020  RH  096%=      5-min Rain = 0
KDO1 141150Z 35009KT 03/02 A3004 RMK A01 T00270020  RH  096%=      5-min Rain = 0
KDO1 141151Z 36007KT 03/02 A3004 RMK A01 T00270021  RH  096%=      5-min Rain = 0
KDO1 141152Z 35009KT 03/02 A3004 RMK A01 T00270021  RH  096%=      5-min Rain = 0
KDO1 141153Z 36007KT 03/02 A3004 RMK A01 T00270021  RH  096%=      5-min Rain = 0
KDO1 141154Z 36008KT 03/02 A3004 RMK A01 T00270021  RH  096%=      5-min Rain = 0
KDO1 141155Z 36008KT 03/02 A3004 RMK A01 T00270021  RH  096%=      5-min Rain = 0
KDO1 141156Z 36009KT 03/02 A3004 RMK A01 T00270021  RH  096%=      5-min Rain = 0
KDO1 141157Z 36010KT 03/02 A3004 RMK A01 T00270021  RH  096%=      5-min Rain = 0
KDO1 141158Z 35010KT 03/02 A3004 RMK A01 T00270021  RH  096%=      5-min Rain = 0
KDO1 141159Z 35009KT 03/02 A3003 RMK A01 T00270021  RH  096%=      5-min Rain = 0
KDO1 141200Z 35010KT 03/02 A3003 RMK A01 T00270021  RH  096%=      5-min Rain = 0
KDO1 141201Z 35012KT 03/02 A3003 RMK A01 T00270021  RH  096%=      5-min Rain = 0
KDO1 141202Z 36012KT 03/02 A3004 RMK A01 T00270021  RH  096%=      5-min Rain = 0
KDO1 141203Z 35008KT 03/02 A3004 RMK A01 T00260020  RH  096%=      5-min Rain = 0
KDO1 141204Z 35012KT 03/02 A3004 RMK A01 T00260020  RH  096%=      5-min Rain = 0
KDO1 141205Z 35011KT 03/02 A3004 RMK A01 T00260020  RH  096%=      5-min Rain = 0
KDO1 141206Z 00010KT 03/02 A3004 RMK A01 T00260020  RH  096%=      5-min Rain = 0
KDO1 141207Z 36011KT 03/02 A3004 RMK A01 T00260020  RH  096%=      5-min Rain = 0
KDO1 141208Z 36009KT 03/02 A3004 RMK A01 T00260020  RH  096%=      5-min Rain = 0
KDO1 141209Z 36008KT 03/02 A3004 RMK A01 T00260020  RH  096%=      5-min Rain = 0
KDO1 141210Z 36010KT 03/02 A3004 RMK A01 T00260020  RH  096%=      5-min Rain = 0
KDO1 141211Z 36010KT 03/02 A3004 RMK A01 T00260020  RH  096%=      5-min Rain = 0
KDO1 141212Z 36012KT 03/02 A3004 RMK A01 T00260020  RH  096%=      5-min Rain = 0
KDO1 141213Z 35008KT 03/02 A3004 RMK A01 T00260020  RH  096%=      5-min Rain = 0
KDO1 141214Z 35009KT 03/02 A3004 RMK A01 T00260020  RH  096%=      5-min Rain = 0
KDO1 141215Z 36010KT 03/02 A3004 RMK A01 T00260020  RH  096%=      5-min Rain = 0
KDO1 141216Z 35009KT 03/02 A3004 RMK A01 T00260020  RH  096%=      5-min Rain = 0
KDO1 141217Z 35008KT 03/02 A3003 RMK A01 T00260020  RH  096%=      5-min Rain = 0
KDO1 141218Z 35007KT 03/02 A3003 RMK A01 T00260020  RH  096%=      5-min Rain = 0
KDO1 141219Z 35008G15KT 03/02 A3003 RMK A01 T00260020  RH  096%=      5-min Rain = 0
KDO1 141220Z 36010KT 03/02 A3003 RMK A01 T00260020  RH  096%=      5-min Rain = 0
KDO1 141221Z 35008KT 03/02 A3003 RMK A01 T00260020  RH  096%=      5-min Rain = 0
KDO1 141222Z 36010KT 03/02 A3003 RMK A01 T00260020  RH  096%=      5-min Rain = 0
KDO1 141223Z 36011KT 03/02 A3004 RMK A01 T00260020  RH  096%=      5-min Rain = 0
KDO1 141224Z 00011KT 03/02 A3004 RMK A01 T00260020  RH  096%=      5-min Rain = 0
KDO1 141225Z 00009KT 03/02 A3004 RMK A01 T00260020  RH  096%=      5-min Rain = 0
KDO1 141226Z 00012KT 03/02 A3004 RMK A01 T00260020  RH  096%=      5-min Rain = 0
KDO1 141227Z 36008KT 03/02 A3004 RMK A01 T00260020  RH  096%=      5-min Rain = 0
KDO1 141228Z 36011KT 03/02 A3004 RMK A01 T00270020  RH  096%=      5-min Rain = 0
KDO1 141229Z 00008KT 03/02 A3004 RMK A01 T00270021  RH  096%=      5-min Rain = 0
KDO1 141230Z 36010KT 03/02 A3004 RMK A01 T00270020  RH  096%=      5-min Rain = 0
KDO1 141231Z 36009KT 03/02 A3003 RMK A01 T00270021  RH  096%=      5-min Rain = 0
KDO1 141232Z 36011KT 03/02 A3003 RMK A01 T00270021  RH  096%=      5-min Rain = 0
KDO1 141233Z 35011KT 03/02 A3003 RMK A01 T00270021  RH  096%=      5-min Rain = 0
KDO1 141234Z 35010KT 03/02 A3003 RMK A01 T00270020  RH  096%=      5-min Rain = 0
KDO1 141235Z 35010KT 03/02 A3004 RMK A01 T00270021  RH  096%=      5-min Rain = 0
KDO1 141236Z 35011KT 03/02 A3004 RMK A01 T00270020  RH  096%=      5-min Rain = 0
KDO1 141237Z 35012KT 03/02 A3004 RMK A01 T00270020  RH  096%=      5-min Rain = 0.01
KDO1 141238Z 35012KT 03/02 A3004 RMK A01 T00270020  RH  096%=      5-min Rain = 0
KDO1 141239Z 36010G16KT 03/02 A3004 RMK A01 T00270020  RH  096%=      5-min Rain = 0
KDO1 141240Z 36013KT 03/02 A3004 RMK A01 T00270020  RH  096%=      5-min Rain = 0
KDO1 141241Z 35010KT 03/02 A3004 RMK A01 T00270020  RH  096%=      5-min Rain = 0
KDO1 141242Z 35010KT 03/02 A3004 RMK A01 T00270020  RH  096%=      5-min Rain = 0
KDO1 141243Z 35011KT 03/02 A3004 RMK A01 T00270020  RH  096%=      5-min Rain = 0
KDO1 141244Z 35012KT 03/02 A3004 RMK A01 T00270020  RH  096%=      5-min Rain = 0
KDO1 141245Z 35012KT 03/02 A3004 RMK A01 T00270020  RH  096%=      5-min Rain = 0
KDO1 141246Z 34011KT 03/02 A3004 RMK A01 T00270020  RH  096%=      5-min Rain = 0
KDO1 141247Z 34011KT 03/02 A3004 RMK A01 T00270020  RH  096%=      5-min Rain = 0
KDO1 141248Z 35012KT 03/02 A3004 RMK A01 T00270021  RH  096%=      5-min Rain = 0
KDO1 141249Z 34011KT 03/02 A3004 RMK A01 T00270021  RH  096%=      5-min Rain = 0
KDO1 141250Z 35014KT 03/02 A3004 RMK A01 T00270021  RH  096%=      5-min Rain = 0
KDO1 141251Z 34013KT 03/02 A3004 RMK A01 T00270021  RH  096%=      5-min Rain = 0
KDO1 141252Z 35013KT 03/02 A3004 RMK A01 T00270021  RH  096%=      5-min Rain = 0
KDO1 141253Z 35012KT 03/02 A3004 RMK A01 T00270020  RH  095%=      5-min Rain = 0
KDO1 141254Z 35013KT 03/02 A3004 RMK A01 T00270020  RH  095%=      5-min Rain = 0
KDO1 141255Z 36013KT 03/02 A3004 RMK A01 T00270020  RH  095%=      5-min Rain = 0
KDO1 141256Z 35014KT 03/02 A3004 RMK A01 T00270020  RH  095%=      5-min Rain = 0
KDO1 141257Z 35012KT 03/02 A3004 RMK A01 T00260019  RH  095%=      5-min Rain = 0
KDO1 141258Z 35011KT 03/02 A3004 RMK A01 T00260019  RH  095%=      5-min Rain = 0
KDO1 141259Z 35011KT 03/02 A3004 RMK A01 T00260019  RH  095%=      5-min Rain = 0
KDO1 141300Z 35013KT 03/02 A3004 RMK A01 T00260019  RH  095%=      5-min Rain = 0
KDO1 141301Z 35012KT 03/02 A3005 RMK A01 T00260019  RH  095%=      5-min Rain = 0
KDO1 141302Z 36010KT 03/02 A3005 RMK A01 T00260019  RH  095%=      5-min Rain = 0
KDO1 141303Z 35010KT 03/02 A3005 RMK A01 T00260019  RH  095%=      5-min Rain = 0
KDO1 141304Z 36009KT 03/02 A3005 RMK A01 T00260019  RH  095%=      5-min Rain = 0
KDO1 141305Z 36008G13KT 03/02 A3005 RMK A01 T00250019  RH  095%=      5-min Rain = 0
KDO1 141306Z 35011KT 03/02 A3005 RMK A01 T00250019  RH  095%=      5-min Rain = 0
KDO1 141307Z 35012KT 03/02 A3005 RMK A01 T00250018  RH  095%=      5-min Rain = 0
KDO1 141308Z 36014KT 02/02 A3005 RMK A01 T00240017  RH  095%=      5-min Rain = 0
KDO1 141309Z 35014KT 02/02 A3005 RMK A01 T00240017  RH  095%=      5-min Rain = 0
KDO1 141310Z 35016KT 02/02 A3005 RMK A01 T00240017  RH  095%=      5-min Rain = 0.01
KDO1 141311Z 35012KT 02/02 A3005 RMK A01 T00230016  RH  095%=      5-min Rain = 0
KDO1 141312Z 36011KT 02/02 A3005 RMK A01 T00230016  RH  095%=      5-min Rain = 0
KDO1 141313Z 36011KT 02/02 A3005 RMK A01 T00230015  RH  095%=      5-min Rain = 0
KDO1 141314Z 35013G19KT 02/02 A3005 RMK A01 T00220015  RH  095%=      5-min Rain = 0
KDO1 141315Z 36014KT 02/01 A3005 RMK A01 T00210014  RH  095%=      5-min Rain = 0
KDO1 141316Z 35015KT 02/01 A3005 RMK A01 T00210013  RH  095%=      5-min Rain = 0
KDO1 141317Z 36013KT 02/01 A3005 RMK A01 T00200012  RH  094%=      5-min Rain = 0
KDO1 141318Z 35016KT 02/01 A3005 RMK A01 T00190011  RH  094%=      5-min Rain = 0
KDO1 141319Z 36013KT 02/01 A3005 RMK A01 T00180010  RH  094%=      5-min Rain = 0.01
KDO1 141320Z 35014KT 02/01 A3005 RMK A01 T00170009  RH  094%=      5-min Rain = 0
KDO1 141321Z 35015KT 02/01 A3005 RMK A01 T00170009  RH  094%=      5-min Rain = 0
KDO1 141322Z 35015KT 02/01 A3005 RMK A01 T00160008  RH  094%=      5-min Rain = 0
KDO1 141323Z 35011KT 02/01 A3005 RMK A01 T00150007  RH  094%=      5-min Rain = 0
KDO1 141324Z 35013G18KT 01/01 A3006 RMK A01 T00140006  RH  094%=      5-min Rain = 0
KDO1 141325Z 35014KT 01/01 A3006 RMK A01 T00130005  RH  095%=      5-min Rain = 0
KDO1 141326Z 35013KT 01/01 A3006 RMK A01 T00130005  RH  095%=      5-min Rain = 0
KDO1 141327Z 35013KT 01/01 A3005 RMK A01 T00120005  RH  095%=      5-min Rain = 0
KDO1 141328Z 35012G19KT 01/00 A3005 RMK A01 T00120004  RH  095%=      5-min Rain = 0
KDO1 141329Z 35013KT 01/00 A3005 RMK A01 T00110004  RH  095%=      5-min Rain = 0
KDO1 141330Z 35015KT 01/00 A3005 RMK A01 T00110003  RH  095%=      5-min Rain = 0
KDO1 141331Z 35014KT 01/00 A3006 RMK A01 T00100003  RH  095%=      5-min Rain = 0
KDO1 141332Z 35015KT 01/00 A3006 RMK A01 T00100003  RH  095%=      5-min Rain = 0
KDO1 141333Z 35014KT 01/00 A3006 RMK A01 T00100003  RH  095%=      5-min Rain = 0
KDO1 141334Z 35012G17KT 01/00 A3006 RMK A01 T00110004  RH  095%=      5-min Rain = 0
KDO1 141335Z 35013KT 01/00 A3006 RMK A01 T00100003  RH  095%=      5-min Rain = 0
KDO1 141336Z 35013KT 01/00 A3006 RMK A01 T00100003  RH  095%=      5-min Rain = 0
KDO1 141337Z 36012KT 01/00 A3006 RMK A01 T00090003  RH  095%=      5-min Rain = 0
KDO1 141338Z 36010KT 01/00 A3006 RMK A01 T00100003  RH  095%=      5-min Rain = 0
KDO1 141339Z 36011G17KT 01/00 A3006 RMK A01 T00090002  RH  095%=      5-min Rain = 0
KDO1 141340Z 36014KT 01/00 A3006 RMK A01 T00090002  RH  095%=      5-min Rain = 0.01
KDO1 141341Z 35012KT 01/00 A3006 RMK A01 T00090002  RH  096%=      5-min Rain = 0
KDO1 141342Z 36012KT 01/00 A3006 RMK A01 T00090002  RH  095%=      5-min Rain = 0
KDO1 141343Z 36014KT 01/00 A3006 RMK A01 T00090002  RH  096%=      5-min Rain = 0
KDO1 141344Z 35014KT 01/00 A3006 RMK A01 T00090003  RH  096%=      5-min Rain = 0
KDO1 141345Z 36015G20KT 01/00 A3007 RMK A01 T00090003  RH  096%=      5-min Rain = 0
KDO1 141346Z 36015KT 01/00 A3007 RMK A01 T00090003  RH  096%=      5-min Rain = 0
KDO1 141347Z 36012KT 01/00 A3007 RMK A01 T00090003  RH  096%=      5-min Rain = 0.01
KDO1 141348Z 36014KT 01/00 A3007 RMK A01 T00090003  RH  096%=      5-min Rain = 0
KDO1 141349Z 00014G19KT 01/00 A3007 RMK A01 T00100003  RH  096%=      5-min Rain = 0
KDO1 141350Z 00014KT 01/00 A3007 RMK A01 T00100003  RH  095%=      5-min Rain = 0
KDO1 141351Z 36015KT 01/00 A3007 RMK A01 T00100003  RH  095%=      5-min Rain = 0
KDO1 141352Z 00014G19KT 01/00 A3007 RMK A01 T00100003  RH  095%=      5-min Rain = 0
KDO1 141353Z 36014G19KT 01/00 A3007 RMK A01 T00100003  RH  095%=      5-min Rain = 0
KDO1 141354Z 35016KT 01/00 A3007 RMK A01 T00090002  RH  095%=      5-min Rain = 0
KDO1 141355Z 36013G19KT 01/00 A3007 RMK A01 T00090002  RH  095%=      5-min Rain = 0
KDO1 141356Z 36014G19KT 01/00 A3007 RMK A01 T00090002  RH  095%=      5-min Rain = 0
KDO1 141357Z 36014KT 01/00 A3007 RMK A01 T00080002  RH  095%=      5-min Rain = 0
KDO1 141358Z 36011G16KT 01/00 A3007 RMK A01 T00080001  RH  095%=      5-min Rain = 0
KDO1 141359Z 36015KT 01/00 A3007 RMK A01 T00070001  RH  096%=      5-min Rain = 0
KDO1 141400Z 35014KT 01/00 A3007 RMK A01 T00070001  RH  096%=      5-min Rain = 0
KDO1 141401Z 36013KT 01/00 A3007 RMK A01 T00070001  RH  096%=      5-min Rain = 0
KDO1 141402Z 36015G20KT 01/00 A3007 RMK A01 T00070001  RH  096%=      5-min Rain = 0
KDO1 141403Z 36012KT 01/00 A3007 RMK A01 T00070001  RH  096%=      5-min Rain = 0
KDO1 141404Z 36013KT 01/00 A3007 RMK A01 T00070001  RH  096%=      5-min Rain = 0
KDO1 141405Z 36015KT 01/00 A3007 RMK A01 T00060001  RH  096%=      5-min Rain = 0
KDO1 141406Z 36015KT 01/00 A3008 RMK A01 T00060001  RH  096%=      5-min Rain = 0
KDO1 141407Z 35014KT 01/00 A3008 RMK A01 T00070001  RH  096%=      5-min Rain = 0
KDO1 141408Z 35012G17KT 01/00 A3008 RMK A01 T00070001  RH  096%=      5-min Rain = 0
KDO1 141409Z 36013KT 01/00 A3008 RMK A01 T00070001  RH  096%=      5-min Rain = 0
KDO1 141410Z 35013KT 01/00 A3008 RMK A01 T00070001  RH  096%=      5-min Rain = 0
KDO1 141411Z 35012KT 01/00 A3008 RMK A01 T00070001  RH  096%=      5-min Rain = 0
KDO1 141412Z 36012KT 01/00 A3008 RMK A01 T00070001  RH  096%=      5-min Rain = 0
KDO1 141413Z 36012KT 01/00 A3008 RMK A01 T00070001  RH  096%=      5-min Rain = 0
KDO1 141414Z 36012KT 01/00 A3008 RMK A01 T00070001  RH  096%=      5-min Rain = 0
KDO1 141415Z 35012KT 01/00 A3008 RMK A01 T00060001  RH  096%=      5-min Rain = 0
KDO1 141416Z 35013KT 01/00 A3008 RMK A01 T00070002  RH  096%=      5-min Rain = 0
KDO1 141417Z 36011KT 01/00 A3008 RMK A01 T00070001  RH  096%=      5-min Rain = 0
KDO1 141418Z 36012KT 01/00 A3008 RMK A01 T00070001  RH  096%=      5-min Rain = 0
KDO1 141419Z 35012KT 01/00 A3008 RMK A01 T00070002  RH  096%=      5-min Rain = 0
KDO1 141420Z 35011KT 01/00 A3008 RMK A01 T00070001  RH  096%=      5-min Rain = 0
KDO1 141421Z 35012KT 01/00 A3008 RMK A01 T00070002  RH  096%=      5-min Rain = 0
KDO1 141422Z 36010KT 01/00 A3008 RMK A01 T00060001  RH  096%=      5-min Rain = 0
KDO1 141423Z 35011KT 01/00 A3008 RMK A01 T00070002  RH  096%=      5-min Rain = 0
KDO1 141424Z 35012KT 01/00 A3008 RMK A01 T00070002  RH  096%=      5-min Rain = 0.01
KDO1 141425Z 35009KT 01/00 A3008 RMK A01 T00070002  RH  096%=      5-min Rain = 0
KDO1 141426Z 35012KT 01/00 A3008 RMK A01 T00070002  RH  096%=      5-min Rain = 0
KDO1 141427Z 35011KT 01/00 A3008 RMK A01 T00070002  RH  096%=      5-min Rain = 0
KDO1 141428Z 35012KT 01/00 A3008 RMK A01 T00070002  RH  096%=      5-min Rain = 0
KDO1 141429Z 35013KT 01/00 A3008 RMK A01 T00070002  RH  096%=      5-min Rain = 0
KDO1 141430Z 35012KT 01/00 A3008 RMK A01 T00070001  RH  096%=      5-min Rain = 0
KDO1 141431Z 35012KT 01/00 A3008 RMK A01 T00060001  RH  096%=      5-min Rain = 0
KDO1 141432Z 35011KT 01/00 A3008 RMK A01 T00060001  RH  096%=      5-min Rain = 0
KDO1 141433Z 35012KT 01/00 A3008 RMK A01 T00060001  RH  096%=      5-min Rain = 0
KDO1 141434Z 35010KT 01/00 A3008 RMK A01 T00060001  RH  096%=      5-min Rain = 0
KDO1 141435Z 35012KT 01/00 A3008 RMK A01 T00060001  RH  096%=      5-min Rain = 0
KDO1 141436Z 35013KT 01/00 A3008 RMK A01 T00060001  RH  097%=      5-min Rain = 0
KDO1 141437Z 35011KT 01/00 A3008 RMK A01 T00060001  RH  097%=      5-min Rain = 0
KDO1 141438Z 35011KT 01/00 A3008 RMK A01 T00060001  RH  097%=      5-min Rain = 0
KDO1 141439Z 35011KT 01/00 A3008 RMK A01 T00060001  RH  097%=      5-min Rain = 0
KDO1 141440Z 35013KT 01/00 A3008 RMK A01 T00060001  RH  097%=      5-min Rain = 0
KDO1 141441Z 35014KT 01/00 A3008 RMK A01 T00060001  RH  097%=      5-min Rain = 0
KDO1 141442Z 34011KT 01/00 A3008 RMK A01 T00060002  RH  097%=      5-min Rain = 0
KDO1 141443Z 35012KT 01/00 A3008 RMK A01 T00060001  RH  097%=      5-min Rain = 0
KDO1 141444Z 35010KT 01/00 A3008 RMK A01 T00060002  RH  097%=      5-min Rain = 0.01
KDO1 141445Z 36009KT 01/00 A3008 RMK A01 T00070002  RH  097%=      5-min Rain = 0
KDO1 141446Z 36012G17KT 01/00 A3008 RMK A01 T00060002  RH  097%=      5-min Rain = 0
KDO1 141447Z 36011KT 01/00 A3008 RMK A01 T00070002  RH  097%=      5-min Rain = 0
KDO1 141448Z 36015KT 01/00 A3008 RMK A01 T00070002  RH  097%=      5-min Rain = 0
KDO1 141449Z 36014KT 01/00 A3008 RMK A01 T00080003  RH  097%=      5-min Rain = 0
KDO1 141450Z 36013G19KT 01/00 A3008 RMK A01 T00080003  RH  096%=      5-min Rain = 0.01
KDO1 141451Z 36017G22KT 01/00 A3008 RMK A01 T00080003  RH  096%=      5-min Rain = 0
KDO1 141452Z 36014G22KT 01/00 A3009 RMK A01 T00080003  RH  096%=      5-min Rain = 0
KDO1 141453Z 36012G21KT 01/00 A3009 RMK A01 T00090003  RH  096%=      5-min Rain = 0
KDO1 141454Z 35014KT 01/00 A3009 RMK A01 T00080003  RH  096%=      5-min Rain = 0
KDO1 141455Z 00013G19KT 01/00 A3009 RMK A01 T00090003  RH  096%=      5-min Rain = 0.01
KDO1 141456Z 00015KT 01/00 A3009 RMK A01 T00090004  RH  096%=      5-min Rain = 0
KDO1 141457Z 00015G21KT 01/00 A3009 RMK A01 T00090004  RH  096%=      5-min Rain = 0
KDO1 141458Z 00015G20KT 01/00 A3009 RMK A01 T00090004  RH  096%=      5-min Rain = 0
KDO1 141459Z 00015G20KT 01/00 A3009 RMK A01 T00090004  RH  096%=      5-min Rain = 0
KDO1 141500Z 00015KT 01/00 A3009 RMK A01 T00090004  RH  096%=      5-min Rain = 0.01
KDO1 141501Z 00013KT 01/00 A3009 RMK A01 T00090004  RH  096%=      5-min Rain = 0
KDO1 141502Z 00015G21KT 01/00 A3009 RMK A01 T00090004  RH  096%=      5-min Rain = 0
KDO1 141503Z 01016G21KT 01/00 A3009 RMK A01 T00090004  RH  096%=      5-min Rain = 0
KDO1 141504Z 36015KT 01/00 A3009 RMK A01 T00090004  RH  096%=      5-min Rain = 0
KDO1 141505Z 00014G19KT 01/00 A3009 RMK A01 T00090004  RH  096%=      5-min Rain = 0.01
KDO1 141506Z 00014G19KT 01/00 A3009 RMK A01 T00090004  RH  096%=      5-min Rain = 0
KDO1 141507Z 36013KT 01/00 A3009 RMK A01 T00100004  RH  096%=      5-min Rain = 0
KDO1 141508Z 36012KT 01/00 A3009 RMK A01 T00100004  RH  096%=      5-min Rain = 0
KDO1 141509Z 36011G16KT 01/00 A3009 RMK A01 T00100004  RH  096%=      5-min Rain = 0
KDO1 141510Z 00013KT 01/00 A3009 RMK A01 T00100004  RH  096%=      5-min Rain = 0
KDO1 141511Z 01011G16KT 01/00 A3009 RMK A01 T00100004  RH  096%=      5-min Rain = 0
KDO1 141512Z 00011KT 01/00 A3009 RMK A01 T00090004  RH  096%=      5-min Rain = 0
KDO1 141513Z 36014KT 01/00 A301 RMK A01 T00090004  RH  096%=      5-min Rain = 0.01
KDO1 141514Z 36015G20KT 01/00 A3009 RMK A01 T00090004  RH  096%=      5-min Rain = 0
KDO1 141515Z 36012KT 01/00 A3009 RMK A01 T00090004  RH  096%=      5-min Rain = 0
KDO1 141516Z 36013KT 01/00 A301 RMK A01 T00090004  RH  096%=      5-min Rain = 0
KDO1 141517Z 35012G17KT 01/00 A301 RMK A01 T00090004  RH  096%=      5-min Rain = 0
KDO1 141518Z 36011KT 01/00 A301 RMK A01 T00090004  RH  096%=      5-min Rain = 0
KDO1 141519Z 36011KT 01/00 A301 RMK A01 T00090004  RH  096%=      5-min Rain = 0.01
KDO1 141520Z 36009KT 01/00 A301 RMK A01 T00090004  RH  096%=      5-min Rain = 0
KDO1 141521Z 00013KT 01/00 A301 RMK A01 T00090004  RH  096%=      5-min Rain = 0
KDO1 141522Z 35011KT 01/00 A301 RMK A01 T00090004  RH  096%=      5-min Rain = 0
KDO1 141523Z 36012KT 01/00 A301 RMK A01 T00090004  RH  096%=      5-min Rain = 0
KDO1 141524Z 36012KT 01/00 A301 RMK A01 T00090004  RH  096%=      5-min Rain = 0
KDO1 141525Z 36011KT 01/01 A301 RMK A01 T00100005  RH  096%=      5-min Rain = 0
KDO1 141526Z 00011KT 01/01 A301 RMK A01 T00100005  RH  096%=      5-min Rain = 0
KDO1 141527Z 36011KT 01/00 A301 RMK A01 T00100004  RH  096%=      5-min Rain = 0.01
KDO1 141528Z 36009KT 01/00 A301 RMK A01 T00090004  RH  096%=      5-min Rain = 0
KDO1 141529Z 00011KT 01/00 A301 RMK A01 T00090004  RH  096%=      5-min Rain = 0
KDO1 141530Z 00010KT 01/00 A301 RMK A01 T00090004  RH  096%=      5-min Rain = 0
KDO1 141531Z 36012KT 01/00 A301 RMK A01 T00090004  RH  096%=      5-min Rain = 0
KDO1 141532Z 00013KT 01/00 A301 RMK A01 T00090004  RH  096%=      5-min Rain = 0
KDO1 141533Z 36012KT 01/00 A301 RMK A01 T00090004  RH  096%=      5-min Rain = 0
KDO1 141534Z 36010KT 01/00 A301 RMK A01 T00090004  RH  096%=      5-min Rain = 0
KDO1 141535Z 00011KT 01/00 A301 RMK A01 T00090004  RH  096%=      5-min Rain = 0
KDO1 141536Z 36011KT 01/00 A301 RMK A01 T00090004  RH  096%=      5-min Rain = 0.01
KDO1 141537Z 36010KT 01/00 A301 RMK A01 T00090003  RH  096%=      5-min Rain = 0
KDO1 141538Z 36011KT 01/00 A301 RMK A01 T00090004  RH  096%=      5-min Rain = 0
KDO1 141539Z 36011KT 01/00 A301 RMK A01 T00090004  RH  096%=      5-min Rain = 0
KDO1 141540Z 36012KT 01/00 A301 RMK A01 T00090004  RH  096%=      5-min Rain = 0
KDO1 141541Z 36009KT 01/00 A301 RMK A01 T00090004  RH  096%=      5-min Rain = 0
KDO1 141542Z 36010KT 01/00 A301 RMK A01 T00090004  RH  096%=      5-min Rain = 0
KDO1 141543Z 00010KT 01/00 A301 RMK A01 T00090004  RH  096%=      5-min Rain = 0
KDO1 141544Z 35010KT 01/00 A301 RMK A01 T00090004  RH  096%=      5-min Rain = 0
KDO1 141545Z 36009G14KT 01/00 A301 RMK A01 T00080003  RH  096%=      5-min Rain = 0.01
KDO1 141546Z 36011KT 01/00 A301 RMK A01 T00080003  RH  096%=      5-min Rain = 0
KDO1 141547Z 35008KT 01/00 A301 RMK A01 T00090003  RH  096%=      5-min Rain = 0
KDO1 141548Z 35009KT 01/00 A301 RMK A01 T00090004  RH  096%=      5-min Rain = 0
KDO1 141549Z 35010KT 01/00 A301 RMK A01 T00080003  RH  096%=      5-min Rain = 0
KDO1 141550Z 35009KT 01/00 A301 RMK A01 T00080003  RH  096%=      5-min Rain = 0
KDO1 141551Z 35009KT 01/00 A301 RMK A01 T00080003  RH  096%=      5-min Rain = 0
KDO1 141552Z 35009KT 01/00 A301 RMK A01 T00080003  RH  097%=      5-min Rain = 0
KDO1 141553Z 35008KT 01/00 A301 RMK A01 T00080003  RH  097%=      5-min Rain = 0
KDO1 141554Z 35009KT 01/00 A301 RMK A01 T00080003  RH  097%=      5-min Rain = 0.01
KDO1 141555Z 35008KT 01/00 A301 RMK A01 T00080003  RH  097%=      5-min Rain = 0
KDO1 141556Z 35008KT 01/00 A301 RMK A01 T00080004  RH  097%=      5-min Rain = 0
KDO1 141557Z 35011KT 01/00 A301 RMK A01 T00090004  RH  097%=      5-min Rain = 0
KDO1 141558Z 35010KT 01/00 A301 RMK A01 T00090004  RH  097%=      5-min Rain = 0
KDO1 141559Z 35010KT 01/00 A301 RMK A01 T00090004  RH  097%=      5-min Rain = 0
KDO1 141600Z 35011KT 01/01 A301 RMK A01 T00090005  RH  097%=      5-min Rain = 0.01
KDO1 141601Z 35010KT 01/01 A301 RMK A01 T00100005  RH  097%=      5-min Rain = 0
KDO1 141602Z 35011KT 01/01 A301 RMK A01 T00100005  RH  097%=      5-min Rain = 0
KDO1 141603Z 35011KT 01/01 A301 RMK A01 T00100005  RH  097%=      5-min Rain = 0
KDO1 141604Z 35011KT 01/01 A301 RMK A01 T00110006  RH  097%=      5-min Rain = 0
KDO1 141605Z 35011KT 01/01 A301 RMK A01 T00110006  RH  097%=      5-min Rain = 0.01
KDO1 141606Z 36009KT 01/01 A301 RMK A01 T00110006  RH  096%=      5-min Rain = 0
KDO1 141607Z 35011KT 01/01 A301 RMK A01 T00110006  RH  096%=      5-min Rain = 0
KDO1 141608Z 35009KT 01/01 A301 RMK A01 T00110006  RH  096%=      5-min Rain = 0
KDO1 141609Z 36012KT 01/01 A301 RMK A01 T00110006  RH  096%=      5-min Rain = 0.01
KDO1 141610Z 35011KT 01/01 A301 RMK A01 T00110006  RH  096%=      5-min Rain = 0
KDO1 141611Z 36009KT 01/01 A301 RMK A01 T00110006  RH  096%=      5-min Rain = 0
KDO1 141612Z 36010KT 01/01 A301 RMK A01 T00110005  RH  096%=      5-min Rain = 0
KDO1 141613Z 35009KT 01/01 A301 RMK A01 T00100005  RH  096%=      5-min Rain = 0
KDO1 141614Z 36009KT 01/01 A301 RMK A01 T00100005  RH  096%=      5-min Rain = 0.01
KDO1 141615Z 35008KT 01/01 A301 RMK A01 T00100005  RH  096%=      5-min Rain = 0
KDO1 141616Z 00008KT 01/01 A301 RMK A01 T00100005  RH  096%=      5-min Rain = 0
KDO1 141617Z 36009KT 01/01 A301 RMK A01 T00100005  RH  096%=      5-min Rain = 0
KDO1 141618Z 35010KT 01/01 A301 RMK A01 T00100005  RH  096%=      5-min Rain = 0
KDO1 141619Z 36010KT 01/01 A301 RMK A01 T00100005  RH  097%=      5-min Rain = 0
KDO1 141620Z 35009KT 01/01 A301 RMK A01 T00100005  RH  097%=      5-min Rain = 0.01
KDO1 141621Z 35010KT 01/01 A301 RMK A01 T00100005  RH  097%=      5-min Rain = 0
KDO1 141622Z 35009KT 01/01 A301 RMK A01 T00100006  RH  097%=      5-min Rain = 0
KDO1 141623Z 35011KT 01/01 A301 RMK A01 T00110006  RH  097%=      5-min Rain = 0
KDO1 141624Z 35010KT 01/01 A301 RMK A01 T00110006  RH  097%=      5-min Rain = 0
KDO1 141625Z 00010G15KT 01/01 A301 RMK A01 T00120007  RH  097%=      5-min Rain = 0
KDO1 141626Z 36011G16KT 01/01 A301 RMK A01 T00120007  RH  097%=      5-min Rain = 0.01
KDO1 141627Z 35013KT 01/01 A301 RMK A01 T00120007  RH  097%=      5-min Rain = 0
KDO1 141628Z 36010KT 01/01 A301 RMK A01 T00130008  RH  097%=      5-min Rain = 0
KDO1 141629Z 36009KT 01/01 A301 RMK A01 T00130008  RH  097%=      5-min Rain = 0
KDO1 141630Z 36009KT 01/01 A301 RMK A01 T00130008  RH  097%=      5-min Rain = 0
KDO1 141631Z 36012KT 01/01 A301 RMK A01 T00140009  RH  097%=      5-min Rain = 0
KDO1 141632Z 35011KT 01/01 A301 RMK A01 T00140009  RH  096%=      5-min Rain = 0
KDO1 141633Z 35012KT 01/01 A301 RMK A01 T00140009  RH  096%=      5-min Rain = 0.01
KDO1 141634Z 35009KT 01/01 A301 RMK A01 T00140009  RH  096%=      5-min Rain = 0
KDO1 141635Z 35011KT 01/01 A301 RMK A01 T00140009  RH  096%=      5-min Rain = 0
KDO1 141636Z 35011KT 02/01 A301 RMK A01 T00150009  RH  096%=      5-min Rain = 0
KDO1 141637Z 34009KT 01/01 A301 RMK A01 T00140009  RH  096%=      5-min Rain = 0
KDO1 141638Z 35011KT 01/01 A301 RMK A01 T00140009  RH  096%=      5-min Rain = 0
KDO1 141639Z 34012KT 01/01 A301 RMK A01 T00140008  RH  096%=      5-min Rain = 0.01
KDO1 141640Z 34011KT 01/01 A301 RMK A01 T00130008  RH  096%=      5-min Rain = 0
KDO1 141641Z 34011G16KT 01/01 A301 RMK A01 T00130008  RH  096%=      5-min Rain = 0
KDO1 141642Z 34013KT 01/01 A301 RMK A01 T00130007  RH  096%=      5-min Rain = 0
KDO1 141643Z 34014KT 01/01 A301 RMK A01 T00120007  RH  096%=      5-min Rain = 0
KDO1 141644Z 34012KT 01/01 A301 RMK A01 T00120007  RH  096%=      5-min Rain = 0.01
KDO1 141645Z 34012KT 01/01 A301 RMK A01 T00120007  RH  096%=      5-min Rain = 0
KDO1 141646Z 35010KT 01/01 A301 RMK A01 T00120007  RH  096%=      5-min Rain = 0
KDO1 141647Z 35012KT 01/01 A301 RMK A01 T00120007  RH  096%=      5-min Rain = 0
KDO1 141648Z 35011KT 01/01 A301 RMK A01 T00120007  RH  096%=      5-min Rain = 0
KDO1 141649Z 35011KT 01/01 A301 RMK A01 T00120007  RH  096%=      5-min Rain = 0.01
KDO1 141650Z 35010KT 01/01 A301 RMK A01 T00130007  RH  096%=      5-min Rain = 0
KDO1 141651Z 34010KT 01/01 A301 RMK A01 T00130007  RH  096%=      5-min Rain = 0
KDO1 141652Z 35012KT 01/01 A301 RMK A01 T00130008  RH  096%=      5-min Rain = 0
KDO1 141653Z 35011KT 01/01 A301 RMK A01 T00130008  RH  096%=      5-min Rain = 0
KDO1 141654Z 35009KT 01/01 A301 RMK A01 T00130008  RH  096%=      5-min Rain = 0.01
KDO1 141655Z 34010KT 01/01 A301 RMK A01 T00130008  RH  096%=      5-min Rain = 0
KDO1 141656Z 35013KT 01/01 A301 RMK A01 T00130008  RH  096%=      5-min Rain = 0
KDO1 141657Z 35012KT 01/01 A301 RMK A01 T00130008  RH  096%=      5-min Rain = 0.01
KDO1 141658Z 35012KT 01/01 A301 RMK A01 T00130008  RH  096%=      5-min Rain = 0
KDO1 141659Z 35012KT 01/01 A301 RMK A01 T00130007  RH  096%=      5-min Rain = 0
KDO1 141700Z 34012KT 01/01 A301 RMK A01 T00120007  RH  096%=      5-min Rain = 0
KDO1 141701Z 35011KT 01/01 A301 RMK A01 T00130007  RH  096%=      5-min Rain = 0.01
KDO1 141702Z 34009KT 01/01 A301 RMK A01 T00130008  RH  096%=      5-min Rain = 0
KDO1 141703Z 34013KT 01/01 A301 RMK A01 T00130008  RH  096%=      5-min Rain = 0
KDO1 141704Z 34012KT 01/01 A301 RMK A01 T00140009  RH  096%=      5-min Rain = 0
KDO1 141705Z 35012KT 01/01 A301 RMK A01 T00140009  RH  096%=      5-min Rain = 0
KDO1 141706Z 34012KT 01/01 A301 RMK A01 T00140009  RH  096%=      5-min Rain = 0.01
KDO1 141707Z 35012KT 02/01 A301 RMK A01 T00150010  RH  096%=      5-min Rain = 0
KDO1 141708Z 34014KT 02/01 A301 RMK A01 T00150010  RH  096%=      5-min Rain = 0
KDO1 141709Z 34012KT 02/01 A301 RMK A01 T00150010  RH  096%=      5-min Rain = 0
KDO1 141710Z 34014KT 02/01 A301 RMK A01 T00150010  RH  096%=      5-min Rain = 0.01
KDO1 141711Z 34016KT 02/01 A301 RMK A01 T00150010  RH  096%=      5-min Rain = 0
KDO1 141712Z 35014KT 02/01 A301 RMK A01 T00150010  RH  096%=      5-min Rain = 0
KDO1 141713Z 35015G21KT 02/01 A301 RMK A01 T00160010  RH  096%=      5-min Rain = 0
KDO1 141714Z 34013KT 02/01 A301 RMK A01 T00160010  RH  096%=      5-min Rain = 0.01
KDO1 141715Z 34014KT 02/01 A301 RMK A01 T00160010  RH  096%=      5-min Rain = 0
KDO1 141716Z 35015KT 02/01 A301 RMK A01 T00160010  RH  096%=      5-min Rain = 0
KDO1 141717Z 34015G21KT 02/01 A301 RMK A01 T00170011  RH  096%=      5-min Rain = 0
KDO1 141718Z 34014G20KT 02/01 A301 RMK A01 T00170011  RH  096%=      5-min Rain = 0.01
KDO1 141719Z 34016KT 02/01 A301 RMK A01 T00170011  RH  096%=      5-min Rain = 0
KDO1 141720Z 34015KT 02/01 A301 RMK A01 T00170011  RH  096%=      5-min Rain = 0
KDO1 141721Z 34012G17KT 02/01 A301 RMK A01 T00170011  RH  096%=      5-min Rain = 0
KDO1 141722Z 34012KT 02/01 A301 RMK A01 T00170011  RH  096%=      5-min Rain = 0.01
KDO1 141723Z 34013G18KT 02/01 A301 RMK A01 T00180012  RH  096%=      5-min Rain = 0
KDO1 141724Z 34014KT 02/01 A301 RMK A01 T00180012  RH  096%=      5-min Rain = 0
KDO1 141725Z 34014KT 02/01 A301 RMK A01 T00180011  RH  096%=      5-min Rain = 0
KDO1 141726Z 34014KT 02/01 A301 RMK A01 T00180011  RH  096%=      5-min Rain = 0
KDO1 141727Z 33015KT 02/01 A301 RMK A01 T00180012  RH  096%=      5-min Rain = 0
KDO1 141728Z 34014G22KT 02/01 A301 RMK A01 T00180011  RH  096%=      5-min Rain = 0.01
KDO1 141729Z 34015KT 02/01 A301 RMK A01 T00170011  RH  096%=      5-min Rain = 0
KDO1 141730Z 35013KT 02/01 A301 RMK A01 T00180011  RH  096%=      5-min Rain = 0
KDO1 141731Z 34012KT 02/01 A301 RMK A01 T00180011  RH  096%=      5-min Rain = 0
KDO1 141732Z 34014KT 02/01 A301 RMK A01 T00180011  RH  096%=      5-min Rain = 0
KDO1 141733Z 35013KT 02/01 A3011 RMK A01 T00180011  RH  096%=      5-min Rain = 0
KDO1 141734Z 35014G20KT 02/01 A3011 RMK A01 T00180011  RH  096%=      5-min Rain = 0
KDO1 141735Z 35012KT 02/01 A3011 RMK A01 T00170011  RH  096%=      5-min Rain = 0
KDO1 141736Z 35012KT 02/01 A3011 RMK A01 T00170011  RH  096%=      5-min Rain = 0
KDO1 141737Z 35013KT 02/01 A3011 RMK A01 T00170011  RH  096%=      5-min Rain = 0
KDO1 141738Z 34012KT 02/01 A3011 RMK A01 T00160010  RH  096%=      5-min Rain = 0
KDO1 141739Z 34015KT 02/01 A3011 RMK A01 T00160010  RH  096%=      5-min Rain = 0.01
KDO1 141740Z 34013KT 02/01 A3011 RMK A01 T00160009  RH  096%=      5-min Rain = 0
KDO1 141741Z 34014KT 02/01 A3011 RMK A01 T00150009  RH  096%=      5-min Rain = 0
KDO1 141742Z 34015KT 02/01 A3011 RMK A01 T00150008  RH  096%=      5-min Rain = 0
KDO1 141743Z 34015KT 01/01 A3011 RMK A01 T00140008  RH  095%=      5-min Rain = 0
KDO1 141744Z 34014G20KT 01/01 A3011 RMK A01 T00140007  RH  096%=      5-min Rain = 0.01
KDO1 141745Z 34016KT 01/01 A3011 RMK A01 T00130007  RH  096%=      5-min Rain = 0
KDO1 141746Z 34013G18KT 01/01 A3011 RMK A01 T00130006  RH  096%=      5-min Rain = 0
KDO1 141747Z 34016KT 01/01 A3011 RMK A01 T00120006  RH  096%=      5-min Rain = 0
KDO1 141748Z 33015KT 01/01 A3011 RMK A01 T00120005  RH  096%=      5-min Rain = 0
KDO1 141749Z 34014KT 01/01 A3011 RMK A01 T00120005  RH  096%=      5-min Rain = 0
KDO1 141750Z 34014KT 01/01 A3011 RMK A01 T00120006  RH  096%=      5-min Rain = 0
KDO1 141751Z 34013KT 01/01 A3011 RMK A01 T00120006  RH  096%=      5-min Rain = 0
KDO1 141752Z 34014KT 01/01 A3011 RMK A01 T00120006  RH  096%=      5-min Rain = 0.01
KDO1 141753Z 34016G22KT 01/01 A3011 RMK A01 T00130007  RH  096%=      5-min Rain = 0
KDO1 141754Z 34015KT 01/01 A3011 RMK A01 T00130007  RH  096%=      5-min Rain = 0
KDO1 141755Z 34013KT 01/01 A3011 RMK A01 T00130008  RH  096%=      5-min Rain = 0
KDO1 141756Z 34014KT 01/01 A3011 RMK A01 T00140008  RH  096%=      5-min Rain = 0
KDO1 141757Z 34014KT 01/01 A3011 RMK A01 T00140008  RH  096%=      5-min Rain = 0
KDO1 141758Z 34016G24KT 02/01 A3011 RMK A01 T00150009  RH  096%=      5-min Rain = 0
KDO1 141759Z 34015G21KT 02/01 A3011 RMK A01 T00150009  RH  096%=      5-min Rain = 0
KDO1 141800Z 34016G22KT 02/01 A3011 RMK A01 T00160009  RH  096%=      5-min Rain = 0
KDO1 141801Z 34018KT 02/01 A3011 RMK A01 T00160009  RH  095%=      5-min Rain = 0
KDO1 141802Z 34018G26KT 02/01 A3011 RMK A01 T00160009  RH  095%=      5-min Rain = 0.01
KDO1 141803Z 33018G25KT 02/01 A3011 RMK A01 T00160009  RH  095%=      5-min Rain = 0
KDO1 141804Z 34018G23KT 02/01 A3011 RMK A01 T00170010  RH  095%=      5-min Rain = 0
KDO1 141805Z 34017KT 02/01 A3011 RMK A01 T00170009  RH  095%=      5-min Rain = 0
KDO1 141806Z 33018G23KT 02/01 A3011 RMK A01 T00170009  RH  095%=      5-min Rain = 0
KDO1 141807Z 34020KT 02/01 A3011 RMK A01 T00170010  RH  095%=      5-min Rain = 0
KDO1 141808Z 34016KT 02/01 A3011 RMK A01 T00170009  RH  095%=      5-min Rain = 0
KDO1 141809Z 34017KT 02/01 A3011 RMK A01 T00170009  RH  095%=      5-min Rain = 0
KDO1 141810Z 34017KT 02/01 A3012 RMK A01 T00170009  RH  095%=      5-min Rain = 0
KDO1 141811Z 34019KT 02/01 A3012 RMK A01 T00170009  RH  095%=      5-min Rain = 0
KDO1 141812Z 34017KT 02/01 A3012 RMK A01 T00170010  RH  095%=      5-min Rain = 0
KDO1 141813Z 34017KT 02/01 A3011 RMK A01 T00170009  RH  095%=      5-min Rain = 0
KDO1 141814Z 34018KT 02/01 A3012 RMK A01 T00170009  RH  095%=      5-min Rain = 0
KDO1 141815Z 34016G22KT 02/01 A3012 RMK A01 T00160009  RH  095%=      5-min Rain = 0
KDO1 141816Z 34016G21KT 02/01 A3012 RMK A01 T00160009  RH  095%=      5-min Rain = 0
KDO1 141817Z 34018G23KT 02/01 A3012 RMK A01 T00160009  RH  095%=      5-min Rain = 0
KDO1 141818Z 34017KT 02/01 A3012 RMK A01 T00150008  RH  095%=      5-min Rain = 0
KDO1 141819Z 34018G23KT 02/01 A3012 RMK A01 T00150008  RH  095%=      5-min Rain = 0
KDO1 141820Z 34016G21KT 02/01 A3012 RMK A01 T00150008  RH  095%=      5-min Rain = 0
KDO1 141821Z 34015G20KT 02/01 A3012 RMK A01 T00150008  RH  095%=      5-min Rain = 0
KDO1 141822Z 34015G20KT 02/01 A3012 RMK A01 T00150008  RH  095%=      5-min Rain = 0
KDO1 141823Z 33015KT 01/01 A3012 RMK A01 T00140008  RH  095%=      5-min Rain = 0
KDO1 141824Z 34017G24KT 01/01 A3012 RMK A01 T00140007  RH  095%=      5-min Rain = 0
KDO1 141825Z 34015KT 01/01 A3012 RMK A01 T00140007  RH  095%=      5-min Rain = 0.02
KDO1 141826Z 34014KT 01/01 A3012 RMK A01 T00140007  RH  095%=      5-min Rain = 0
KDO1 141827Z 33017KT 01/01 A3012 RMK A01 T00140007  RH  095%=      5-min Rain = 0
KDO1 141828Z 34018KT 01/01 A3012 RMK A01 T00130007  RH  095%=      5-min Rain = 0
KDO1 141829Z 34015KT 01/01 A3012 RMK A01 T00130006  RH  095%=      5-min Rain = 0
KDO1 141830Z 34017KT 01/01 A3012 RMK A01 T00130006  RH  095%=      5-min Rain = 0
KDO1 141831Z 34016KT 01/01 A3012 RMK A01 T00130006  RH  095%=      5-min Rain = 0
KDO1 141832Z 34016KT 01/01 A3012 RMK A01 T00130006  RH  095%=      5-min Rain = 0
KDO1 141833Z 34014KT 01/01 A3012 RMK A01 T00130006  RH  095%=      5-min Rain = 0
KDO1 141834Z 34014G19KT 01/01 A3012 RMK A01 T00130007  RH  095%=      5-min Rain = 0
KDO1 141835Z 34016G23KT 01/01 A3012 RMK A01 T00130007  RH  095%=      5-min Rain = 0
KDO1 141836Z 34018KT 01/01 A3012 RMK A01 T00130006  RH  095%=      5-min Rain = 0
KDO1 141837Z 34017KT 01/01 A3012 RMK A01 T00130006  RH  095%=      5-min Rain = 0
KDO1 141838Z 33016G21KT 01/01 A3012 RMK A01 T00120005  RH  095%=      5-min Rain = 0.02
KDO1 141839Z 33015G21KT 01/00 A3012 RMK A01 T00110004  RH  095%=      5-min Rain = 0
KDO1 141840Z 34015KT 01/00 A3012 RMK A01 T00100003  RH  095%=      5-min Rain = 0
KDO1 141841Z 34020KT 01/00 A3012 RMK A01 T00100003  RH  095%=      5-min Rain = 0
KDO1 141842Z 33017KT 01/00 A3012 RMK A01 T00090002  RH  095%=      5-min Rain = 0
KDO1 141843Z 34014KT 01/00 A3012 RMK A01 T00090002  RH  095%=      5-min Rain = 0
KDO1 141844Z 34017G22KT 01/00 A3012 RMK A01 T00080002  RH  096%=      5-min Rain = 0
KDO1 141845Z 34014G19KT 01/00 A3012 RMK A01 T00080002  RH  096%=      5-min Rain = 0
KDO1 141846Z 33016G21KT 01/00 A3012 RMK A01 T00080002  RH  096%=      5-min Rain = 0
KDO1 141847Z 33014KT 01/00 A3012 RMK A01 T00070002  RH  096%=      5-min Rain = 0
KDO1 141848Z 33013KT 01/00 A3012 RMK A01 T00070001  RH  096%=      5-min Rain = 0
KDO1 141849Z 33015KT 01/00 A3012 RMK A01 T00070001  RH  096%=      5-min Rain = 0
KDO1 141850Z 34012KT 01/00 A3012 RMK A01 T00070001  RH  096%=      5-min Rain = 0
KDO1 141851Z 34013KT 01/00 A3012 RMK A01 T00060001  RH  096%=      5-min Rain = 0
KDO1 141852Z 34012KT 01/00 A3012 RMK A01 T00070001  RH  096%=      5-min Rain = 0.01
KDO1 141853Z 34012KT 01/00 A3012 RMK A01 T00060001  RH  096%=      5-min Rain = 0
KDO1 141854Z 34012KT 01/00 A3012 RMK A01 T00070001  RH  096%=      5-min Rain = 0
KDO1 141855Z 34013KT 01/00 A3012 RMK A01 T00070001  RH  096%=      5-min Rain = 0
KDO1 141856Z 34013KT 01/00 A3012 RMK A01 T00070002  RH  096%=      5-min Rain = 0
KDO1 141857Z 33011KT 01/00 A3012 RMK A01 T00070001  RH  096%=      5-min Rain = 0
KDO1 141858Z 34011G16KT 01/00 A3012 RMK A01 T00060001  RH  096%=      5-min Rain = 0
KDO1 141859Z 33015KT 01/00 A3012 RMK A01 T00060001  RH  096%=      5-min Rain = 0
KDO1 141900Z 33014KT 01/00 A3012 RMK A01 T00070002  RH  096%=      5-min Rain = 0
KDO1 141901Z 34012KT 01/00 A3012 RMK A01 T00070002  RH  096%=      5-min Rain = 0
KDO1 141902Z 34011KT 01/00 A3012 RMK A01 T00070002  RH  096%=      5-min Rain = 0
KDO1 141903Z 33011G16KT 01/00 A3012 RMK A01 T00070001  RH  096%=      5-min Rain = 0
KDO1 141904Z 34011KT 01/00 A3012 RMK A01 T00070001  RH  096%=      5-min Rain = 0
KDO1 141905Z 34012KT 01/00 A3012 RMK A01 T00070001  RH  096%=      5-min Rain = 0
KDO1 141906Z 34012KT 01/00 A3012 RMK A01 T00060001  RH  096%=      5-min Rain = 0
KDO1 141907Z 34013KT 01/00 A3012 RMK A01 T00060001  RH  096%=      5-min Rain = 0.01
KDO1 141908Z 34011KT 01/00 A3012 RMK A01 T00060001  RH  096%=      5-min Rain = 0
KDO1 141909Z 33012KT 01/00 A3012 RMK A01 T00060001  RH  096%=      5-min Rain = 0
KDO1 141910Z 34010KT 01/00 A3012 RMK A01 T00060001  RH  096%=      5-min Rain = 0
KDO1 141911Z 34011KT 01/00 A3012 RMK A01 T00060001  RH  096%=      5-min Rain = 0
KDO1 141912Z 34013KT 01/00 A3012 RMK A01 T00060001  RH  096%=      5-min Rain = 0
KDO1 141913Z 34013KT 01/00 A3012 RMK A01 T00060001  RH  097%=      5-min Rain = 0
KDO1 141914Z 33013KT 01/00 A3011 RMK A01 T00060001  RH  097%=      5-min Rain = 0
KDO1 141915Z 33014KT 01/00 A3011 RMK A01 T00060001  RH  097%=      5-min Rain = 0
KDO1 141916Z 34012KT 01/00 A3011 RMK A01 T00060001  RH  097%=      5-min Rain = 0
KDO1 141917Z 34013KT 01/00 A3011 RMK A01 T00060001  RH  097%=      5-min Rain = 0
KDO1 141918Z 34011KT 01/00 A3011 RMK A01 T00060001  RH  097%=      5-min Rain = 0
KDO1 141919Z 34011KT 01/00 A3011 RMK A01 T00050000  RH  097%=      5-min Rain = 0
KDO1 141920Z 34010KT 01/00 A3011 RMK A01 T00050000  RH  097%=      5-min Rain = 0
KDO1 141921Z 34013KT 01/00 A3011 RMK A01 T00050001  RH  097%=      5-min Rain = 0
KDO1 141922Z 34012KT 01/00 A3011 RMK A01 T00050000  RH  097%=      5-min Rain = 0
KDO1 141923Z 33012KT 01/00 A3011 RMK A01 T00050001  RH  097%=      5-min Rain = 0
KDO1 141924Z 33010KT 01/00 A3011 RMK A01 T00050001  RH  097%=      5-min Rain = 0
KDO1 141925Z 33013G18KT 01/00 A3011 RMK A01 T00050001  RH  097%=      5-min Rain = 0
KDO1 141926Z 33014KT 01/00 A3011 RMK A01 T00050001  RH  097%=      5-min Rain = 0
KDO1 141927Z 33013G18KT 01/00 A3011 RMK A01 T00060001  RH  097%=      5-min Rain = 0
KDO1 141928Z 33017KT 01/00 A3011 RMK A01 T00060001  RH  097%=      5-min Rain = 0
KDO1 141929Z 33018KT 01/00 A3011 RMK A01 T00060001  RH  097%=      5-min Rain = 0
KDO1 141930Z 34015G20KT 01/00 A3011 RMK A01 T00070002  RH  097%=      5-min Rain = 0
KDO1 141931Z 34014KT 01/00 A3011 RMK A01 T00070002  RH  097%=      5-min Rain = 0.01
KDO1 141932Z 33013G18KT 01/00 A3011 RMK A01 T00070002  RH  097%=      5-min Rain = 0
KDO1 141933Z 33015KT 01/00 A3011 RMK A01 T00070002  RH  097%=      5-min Rain = 0
KDO1 141934Z 33013KT 01/00 A3011 RMK A01 T00070002  RH  097%=      5-min Rain = 0
KDO1 141935Z 33011KT 01/00 A3011 RMK A01 T00070002  RH  097%=      5-min Rain = 0
KDO1 141936Z 33013KT 01/00 A3011 RMK A01 T00070002  RH  097%=      5-min Rain = 0
KDO1 141937Z 33015G20KT 01/00 A3011 RMK A01 T00060002  RH  097%=      5-min Rain = 0
KDO1 141938Z 33013KT 01/00 A3011 RMK A01 T00070002  RH  097%=      5-min Rain = 0.01
KDO1 141939Z 33012KT 01/00 A3011 RMK A01 T00070002  RH  097%=      5-min Rain = 0
KDO1 141940Z 34013KT 01/00 A3011 RMK A01 T00070002  RH  097%=      5-min Rain = 0
KDO1 141941Z 34014KT 01/00 A3011 RMK A01 T00070002  RH  097%=      5-min Rain = 0
KDO1 141942Z 33011KT 01/00 A3011 RMK A01 T00070002  RH  097%=      5-min Rain = 0
KDO1 141943Z 33012G17KT 01/00 A3011 RMK A01 T00070002  RH  097%=      5-min Rain = 0
KDO1 141944Z 33013KT 01/00 A3011 RMK A01 T00070002  RH  097%=      5-min Rain = 0
KDO1 141945Z 33012G17KT 01/00 A3011 RMK A01 T00080003  RH  097%=      5-min Rain = 0
KDO1 141946Z 33012KT 01/00 A3011 RMK A01 T00080003  RH  097%=      5-min Rain = 0.01
KDO1 141947Z 33011G16KT 01/00 A3011 RMK A01 T00080003  RH  097%=      5-min Rain = 0
KDO1 141948Z 34011KT 01/00 A3011 RMK A01 T00080003  RH  096%=      5-min Rain = 0
KDO1 141949Z 33012KT 01/00 A3011 RMK A01 T00080003  RH  096%=      5-min Rain = 0
KDO1 141950Z 33011KT 01/00 A3011 RMK A01 T00080003  RH  096%=      5-min Rain = 0
KDO1 141951Z 33011KT 01/00 A3011 RMK A01 T00080003  RH  096%=      5-min Rain = 0
KDO1 141952Z 34011KT 01/00 A3011 RMK A01 T00080003  RH  096%=      5-min Rain = 0.01
KDO1 141953Z 34014KT 01/00 A3011 RMK A01 T00080003  RH  096%=      5-min Rain = 0
KDO1 141954Z 34013KT 01/00 A3011 RMK A01 T00080003  RH  096%=      5-min Rain = 0
KDO1 141955Z 34012KT 01/00 A3011 RMK A01 T00090003  RH  096%=      5-min Rain = 0
KDO1 141956Z 34013KT 01/00 A3011 RMK A01 T00090003  RH  096%=      5-min Rain = 0
KDO1 141957Z 34015KT 01/00 A3011 RMK A01 T00090003  RH  096%=      5-min Rain = 0.01
KDO1 141958Z 34013KT 01/00 A3011 RMK A01 T00090004  RH  096%=      5-min Rain = 0
KDO1 141959Z 34013G18KT 01/00 A3011 RMK A01 T00090004  RH  096%=      5-min Rain = 0
KDO1 142000Z 34011KT 01/00 A3011 RMK A01 T00090003  RH  096%=      5-min Rain = 0
KDO1 142001Z 34011KT 01/00 A3011 RMK A01 T00090004  RH  096%=      5-min Rain = 0
KDO1 142002Z 34015KT 01/00 A3011 RMK A01 T00090003  RH  096%=      5-min Rain = 0.01
KDO1 142003Z 34013KT 01/00 A3011 RMK A01 T00090003  RH  096%=      5-min Rain = 0
KDO1 142004Z 34013KT 01/00 A3011 RMK A01 T00090003  RH  096%=      5-min Rain = 0
KDO1 142005Z 34013KT 01/00 A3011 RMK A01 T00090003  RH  096%=      5-min Rain = 0
KDO1 142006Z 34012KT 01/00 A3011 RMK A01 T00090003  RH  096%=      5-min Rain = 0
KDO1 142007Z 34013KT 01/00 A3011 RMK A01 T00090003  RH  096%=      5-min Rain = 0
KDO1 142008Z 34012KT 01/00 A3011 RMK A01 T00090003  RH  096%=      5-min Rain = 0.01
KDO1 142009Z 34013G18KT 01/00 A3011 RMK A01 T00090003  RH  096%=      5-min Rain = 0
KDO1 142010Z 34014KT 01/00 A3011 RMK A01 T00090003  RH  096%=      5-min Rain = 0
KDO1 142011Z 33013G18KT 01/00 A3011 RMK A01 T00090003  RH  096%=      5-min Rain = 0
KDO1 142012Z 34014G20KT 01/00 A3011 RMK A01 T00090003  RH  096%=      5-min Rain = 0
KDO1 142013Z 34014KT 01/00 A3011 RMK A01 T00090003  RH  096%=      5-min Rain = 0
KDO1 142014Z 34012KT 01/00 A3011 RMK A01 T00090003  RH  096%=      5-min Rain = 0.01
KDO1 142015Z 34011KT 01/00 A3011 RMK A01 T00090003  RH  096%=      5-min Rain = 0
KDO1 142016Z 34013KT 01/00 A301 RMK A01 T00090003  RH  096%=      5-min Rain = 0
KDO1 142017Z 34013KT 01/00 A301 RMK A01 T00090003  RH  096%=      5-min Rain = 0
KDO1 142018Z 33012KT 01/00 A301 RMK A01 T00090003  RH  096%=      5-min Rain = 0
KDO1 142019Z 33011KT 01/00 A301 RMK A01 T00090004  RH  096%=      5-min Rain = 0
KDO1 142020Z 33011KT 01/00 A301 RMK A01 T00090003  RH  096%=      5-min Rain = 0.01
KDO1 142021Z 33011KT 01/00 A301 RMK A01 T00090003  RH  096%=      5-min Rain = 0
KDO1 142022Z 33013KT 01/00 A301 RMK A01 T00100004  RH  096%=      5-min Rain = 0
KDO1 142023Z 34011G16KT 01/00 A301 RMK A01 T00100004  RH  096%=      5-min Rain = 0
KDO1 142024Z 33011KT 01/00 A301 RMK A01 T00100004  RH  095%=      5-min Rain = 0
KDO1 142025Z 33011KT 01/00 A301 RMK A01 T00110004  RH  095%=      5-min Rain = 0
KDO1 142026Z 33009KT 01/00 A301 RMK A01 T00110004  RH  095%=      5-min Rain = 0
KDO1 142027Z 34011KT 01/01 A301 RMK A01 T00120005  RH  095%=      5-min Rain = 0.01
KDO1 142028Z 33013KT 01/01 A301 RMK A01 T00120005  RH  095%=      5-min Rain = 0
KDO1 142029Z 33012KT 01/01 A301 RMK A01 T00120005  RH  095%=      5-min Rain = 0
KDO1 142030Z 33011KT 01/01 A301 RMK A01 T00120005  RH  095%=      5-min Rain = 0
KDO1 142031Z 33014KT 01/01 A301 RMK A01 T00130005  RH  095%=      5-min Rain = 0
KDO1 142032Z 33013KT 01/01 A301 RMK A01 T00130005  RH  095%=      5-min Rain = 0
KDO1 142033Z 33014KT 01/01 A301 RMK A01 T00140006  RH  094%=      5-min Rain = 0
KDO1 142034Z 34010KT 01/01 A301 RMK A01 T00140006  RH  094%=      5-min Rain = 0
KDO1 142035Z 32013KT 01/01 A301 RMK A01 T00140006  RH  094%=      5-min Rain = 0.01
KDO1 142036Z 33013KT 02/01 A301 RMK A01 T00150006  RH  094%=      5-min Rain = 0
KDO1 142037Z 33011KT 02/01 A301 RMK A01 T00150006  RH  094%=      5-min Rain = 0
KDO1 142038Z 33009G14KT 02/01 A301 RMK A01 T00150006  RH  094%=      5-min Rain = 0
KDO1 142039Z 33012KT 02/01 A301 RMK A01 T00160007  RH  094%=      5-min Rain = 0
KDO1 142040Z 33013KT 02/01 A301 RMK A01 T00160007  RH  093%=      5-min Rain = 0
KDO1 142041Z 33013KT 02/01 A301 RMK A01 T00170007  RH  093%=      5-min Rain = 0
KDO1 142042Z 33014KT 02/01 A301 RMK A01 T00170007  RH  093%=      5-min Rain = 0
KDO1 142043Z 33016KT 02/01 A301 RMK A01 T00180007  RH  092%=      5-min Rain = 0
KDO1 142044Z 33014KT 02/01 A301 RMK A01 T00190007  RH  092%=      5-min Rain = 0.01
KDO1 142045Z 33012KT 02/01 A301 RMK A01 T00190007  RH  091%=      5-min Rain = 0
KDO1 142046Z 33013KT 02/01 A301 RMK A01 T00200007  RH  091%=      5-min Rain = 0
KDO1 142047Z 33014KT 02/01 A301 RMK A01 T00200007  RH  091%=      5-min Rain = 0
KDO1 142048Z 33013KT 02/01 A301 RMK A01 T00210007  RH  091%=      5-min Rain = 0
KDO1 142049Z 33014KT 02/01 A301 RMK A01 T00210007  RH  091%=      5-min Rain = 0
KDO1 142050Z 33015KT 02/01 A301 RMK A01 T00220007  RH  090%=      5-min Rain = 0
KDO1 142051Z 33014KT 02/01 A301 RMK A01 T00220007  RH  090%=      5-min Rain = 0
KDO1 142052Z 33015G21KT 02/01 A301 RMK A01 T00230008  RH  090%=      5-min Rain = 0
KDO1 142053Z 33015KT 02/01 A301 RMK A01 T00230007  RH  089%=      5-min Rain = 0
KDO1 142054Z 34014KT 02/01 A301 RMK A01 T00240007  RH  089%=      5-min Rain = 0
KDO1 142055Z 33017G22KT 02/01 A301 RMK A01 T00240007  RH  088%=      5-min Rain = 0
KDO1 142056Z 33016KT 03/01 A301 RMK A01 T00250007  RH  088%=      5-min Rain = 0
KDO1 142057Z 34014KT 03/01 A301 RMK A01 T00250007  RH  087%=      5-min Rain = 0
KDO1 142058Z 34013G18KT 03/01 A301 RMK A01 T00260007  RH  088%=      5-min Rain = 0
KDO1 142059Z 33013G19KT 03/01 A301 RMK A01 T00260008  RH  088%=      5-min Rain = 0
KDO1 142100Z 34016KT 03/01 A301 RMK A01 T00260007  RH  088%=      5-min Rain = 0
KDO1 142101Z 33017KT 03/01 A301 RMK A01 T00260007  RH  087%=      5-min Rain = 0
KDO1 142102Z 34016KT 03/01 A301 RMK A01 T00260007  RH  087%=      5-min Rain = 0
KDO1 142103Z 33015G20KT 03/01 A301 RMK A01 T00270007  RH  087%=      5-min Rain = 0
KDO1 142104Z 33014KT 03/01 A301 RMK A01 T00270007  RH  086%=      5-min Rain = 0
KDO1 142105Z 34012KT 03/01 A301 RMK A01 T00270008  RH  087%=      5-min Rain = 0
KDO1 142106Z 34014G20KT 03/01 A301 RMK A01 T00270008  RH  087%=      5-min Rain = 0
KDO1 142107Z 34016KT 03/01 A301 RMK A01 T00280008  RH  087%=      5-min Rain = 0
KDO1 142108Z 35014KT 03/01 A301 RMK A01 T00280007  RH  087%=      5-min Rain = 0
KDO1 142109Z 34014KT 03/01 A301 RMK A01 T00280008  RH  086%=      5-min Rain = 0
KDO1 142110Z 34015KT 03/01 A301 RMK A01 T00280007  RH  086%=      5-min Rain = 0
KDO1 142111Z 34013KT 03/01 A301 RMK A01 T00290007  RH  086%=      5-min Rain = 0
KDO1 142112Z 35013KT 03/01 A301 RMK A01 T00290008  RH  086%=      5-min Rain = 0
KDO1 142113Z 34012KT 03/01 A301 RMK A01 T00300008  RH  086%=      5-min Rain = 0
KDO1 142114Z 34011KT 03/01 A301 RMK A01 T00290008  RH  086%=      5-min Rain = 0
KDO1 142115Z 35011G16KT 03/01 A3009 RMK A01 T00300009  RH  086%=      5-min Rain = 0
KDO1 142116Z 34011KT 03/01 A3009 RMK A01 T00300010  RH  086%=      5-min Rain = 0
KDO1 142117Z 33012KT 03/01 A3009 RMK A01 T00310010  RH  086%=      5-min Rain = 0
KDO1 142118Z 33010KT 03/01 A3009 RMK A01 T00310011  RH  087%=      5-min Rain = 0
KDO1 142119Z 34011KT 03/01 A3009 RMK A01 T00310011  RH  087%=      5-min Rain = 0
KDO1 142120Z 34011KT 03/01 A3009 RMK A01 T00310012  RH  087%=      5-min Rain = 0
KDO1 142121Z 33011KT 03/01 A3009 RMK A01 T00320012  RH  087%=      5-min Rain = 0
KDO1 142122Z 33010KT 03/01 A3009 RMK A01 T00320012  RH  087%=      5-min Rain = 0
KDO1 142123Z 33011KT 03/01 A3009 RMK A01 T00320013  RH  087%=      5-min Rain = 0
KDO1 142124Z 33011KT 03/01 A3009 RMK A01 T00320013  RH  087%=      5-min Rain = 0
KDO1 142125Z 34010KT 03/01 A3009 RMK A01 T00320012  RH  087%=      5-min Rain = 0
KDO1 142126Z 33011KT 03/01 A3009 RMK A01 T00330013  RH  087%=      5-min Rain = 0
KDO1 142127Z 33011KT 03/01 A3009 RMK A01 T00330013  RH  087%=      5-min Rain = 0
KDO1 142128Z 33010KT 03/01 A3009 RMK A01 T00330013  RH  087%=      5-min Rain = 0
KDO1 142129Z 33011KT 03/01 A3009 RMK A01 T00330014  RH  087%=      5-min Rain = 0
KDO1 142130Z 34009KT 03/01 A3009 RMK A01 T00340014  RH  087%=      5-min Rain = 0
KDO1 142131Z 34011KT 03/01 A3009 RMK A01 T00340014  RH  087%=      5-min Rain = 0
KDO1 142132Z 34012KT 03/01 A3009 RMK A01 T00340014  RH  086%=      5-min Rain = 0
KDO1 142133Z 33012KT 03/01 A3009 RMK A01 T00340014  RH  086%=      5-min Rain = 0
KDO1 142134Z 33011KT 04/01 A3009 RMK A01 T00350014  RH  086%=      5-min Rain = 0
KDO1 142135Z 33013KT 03/01 A3008 RMK A01 T00340013  RH  086%=      5-min Rain = 0
KDO1 142136Z 33010KT 04/01 A3008 RMK A01 T00350013  RH  085%=      5-min Rain = 0
KDO1 142137Z 33009KT 04/01 A3008 RMK A01 T00350013  RH  086%=      5-min Rain = 0
KDO1 142138Z 33011KT 04/01 A3008 RMK A01 T00350014  RH  086%=      5-min Rain = 0
KDO1 142139Z 33008KT 04/02 A3008 RMK A01 T00350015  RH  086%=      5-min Rain = 0
KDO1 142140Z 35009KT 04/02 A3008 RMK A01 T00360015  RH  086%=      5-min Rain = 0
KDO1 142141Z 35009KT 04/02 A3008 RMK A01 T00360015  RH  086%=      5-min Rain = 0
KDO1 142142Z 34009KT 04/02 A3008 RMK A01 T00360015  RH  086%=      5-min Rain = 0
KDO1 142143Z 34010KT 04/01 A3008 RMK A01 T00370014  RH  085%=      5-min Rain = 0
KDO1 142144Z 34010KT 04/02 A3008 RMK A01 T00360015  RH  086%=      5-min Rain = 0
KDO1 142145Z 34008KT 04/02 A3008 RMK A01 T00370015  RH  086%=      5-min Rain = 0
KDO1 142146Z 35009KT 04/02 A3008 RMK A01 T00370016  RH  086%=      5-min Rain = 0
KDO1 142147Z 34011G16KT 04/02 A3008 RMK A01 T00380016  RH  086%=      5-min Rain = 0
KDO1 142148Z 34012KT 04/02 A3008 RMK A01 T00380016  RH  086%=      5-min Rain = 0
KDO1 142149Z 34013KT 04/02 A3008 RMK A01 T00380015  RH  085%=      5-min Rain = 0
KDO1 142150Z 33012KT 04/01 A3008 RMK A01 T00380014  RH  084%=      5-min Rain = 0
KDO1 142151Z 34011KT 04/02 A3008 RMK A01 T00380015  RH  085%=      5-min Rain = 0
KDO1 142152Z 34010G17KT 04/02 A3008 RMK A01 T00380015  RH  085%=      5-min Rain = 0
KDO1 142153Z 34014G19KT 04/02 A3008 RMK A01 T00390016  RH  085%=      5-min Rain = 0
KDO1 142154Z 35012KT 04/01 A3008 RMK A01 T00390014  RH  084%=      5-min Rain = 0
KDO1 142155Z 34010KT 04/02 A3008 RMK A01 T00390015  RH  085%=      5-min Rain = 0
KDO1 142156Z 34011KT 04/02 A3008 RMK A01 T00390015  RH  084%=      5-min Rain = 0
KDO1 142157Z 34010KT 04/02 A3008 RMK A01 T00390015  RH  085%=      5-min Rain = 0
KDO1 142158Z 34010KT 04/02 A3008 RMK A01 T00400017  RH  085%=      5-min Rain = 0
KDO1 142159Z 34009KT 04/02 A3008 RMK A01 T00400017  RH  085%=      5-min Rain = 0
KDO1 142200Z 34010KT 04/02 A3008 RMK A01 T00400018  RH  085%=      5-min Rain = 0
KDO1 142201Z 34011KT 04/02 A3007 RMK A01 T00410017  RH  085%=      5-min Rain = 0
KDO1 142202Z 34011G17KT 04/02 A3008 RMK A01 T00410016  RH  084%=      5-min Rain = 0
KDO1 142203Z 34011KT 04/02 A3008 RMK A01 T00410016  RH  084%=      5-min Rain = 0
KDO1 142204Z 34012KT 04/02 A3007 RMK A01 T00410016  RH  084%=      5-min Rain = 0
KDO1 142205Z 34010KT 04/02 A3008 RMK A01 T00410015  RH  083%=      5-min Rain = 0
KDO1 142206Z 35012G17KT 04/02 A3008 RMK A01 T00410015  RH  083%=      5-min Rain = 0
KDO1 142207Z 35014G19KT 04/02 A3008 RMK A01 T00410015  RH  083%=      5-min Rain = 0
KDO1 142208Z 34011KT 04/01 A3008 RMK A01 T00410014  RH  082%=      5-min Rain = 0
KDO1 142209Z 34011KT 04/02 A3008 RMK A01 T00420015  RH  083%=      5-min Rain = 0
KDO1 142210Z 35013KT 04/02 A3007 RMK A01 T00420016  RH  083%=      5-min Rain = 0
KDO1 142211Z 35014KT 04/02 A3007 RMK A01 T00420015  RH  082%=      5-min Rain = 0
KDO1 142212Z 34012G17KT 04/01 A3007 RMK A01 T00420014  RH  082%=      5-min Rain = 0
KDO1 142213Z 35010KT 04/02 A3007 RMK A01 T00420015  RH  082%=      5-min Rain = 0
KDO1 142214Z 35010KT 04/02 A3007 RMK A01 T00430016  RH  083%=      5-min Rain = 0
KDO1 142215Z 35015G20KT 04/02 A3007 RMK A01 T00430015  RH  082%=      5-min Rain = 0
KDO1 142216Z 35015KT 04/01 A3007 RMK A01 T00430014  RH  081%=      5-min Rain = 0
KDO1 142217Z 34013KT 04/01 A3007 RMK A01 T00430013  RH  081%=      5-min Rain = 0
KDO1 142218Z 34011KT 04/01 A3007 RMK A01 T00430013  RH  081%=      5-min Rain = 0
KDO1 142219Z 34014KT 04/01 A3007 RMK A01 T00430014  RH  082%=      5-min Rain = 0
KDO1 142220Z 34012KT 04/01 A3007 RMK A01 T00430014  RH  081%=      5-min Rain = 0
KDO1 142221Z 34013G18KT 04/01 A3007 RMK A01 T00430014  RH  082%=      5-min Rain = 0
KDO1 142222Z 35017KT 04/01 A3007 RMK A01 T00430013  RH  081%=      5-min Rain = 0
KDO1 142223Z 35015KT 04/01 A3007 RMK A01 T00430012  RH  080%=      5-min Rain = 0
KDO1 142224Z 34014KT 04/01 A3007 RMK A01 T00430012  RH  080%=      5-min Rain = 0
KDO1 142225Z 34014KT 04/01 A3007 RMK A01 T00430012  RH  080%=      5-min Rain = 0
KDO1 142226Z 34014KT 04/01 A3007 RMK A01 T00430012  RH  080%=      5-min Rain = 0
KDO1 142227Z 34012KT 04/01 A3007 RMK A01 T00430012  RH  080%=      5-min Rain = 0
KDO1 142228Z 34012KT 04/01 A3007 RMK A01 T00430013  RH  081%=      5-min Rain = 0
KDO1 142229Z 34011KT 04/01 A3007 RMK A01 T00430013  RH  081%=      5-min Rain = 0
KDO1 142230Z 34012KT 04/01 A3007 RMK A01 T00440013  RH  081%=      5-min Rain = 0
KDO1 142231Z 34010KT 04/01 A3007 RMK A01 T00440014  RH  081%=      5-min Rain = 0
KDO1 142232Z 34011KT 04/01 A3007 RMK A01 T00440014  RH  081%=      5-min Rain = 0
KDO1 142233Z 34009KT 04/01 A3007 RMK A01 T00440014  RH  081%=      5-min Rain = 0
KDO1 142234Z 34010KT 04/01 A3007 RMK A01 T00430014  RH  081%=      5-min Rain = 0
KDO1 142235Z 34012KT 04/01 A3007 RMK A01 T00440014  RH  081%=      5-min Rain = 0
KDO1 142236Z 34010KT 04/01 A3007 RMK A01 T00440013  RH  081%=      5-min Rain = 0
KDO1 142237Z 34009KT 04/01 A3007 RMK A01 T00440014  RH  081%=      5-min Rain = 0
KDO1 142238Z 34010KT 04/02 A3007 RMK A01 T00440015  RH  081%=      5-min Rain = 0
KDO1 142239Z 34008KT 04/02 A3007 RMK A01 T00440015  RH  081%=      5-min Rain = 0
KDO1 142240Z 34007KT 05/02 A3007 RMK A01 T00450015  RH  081%=      5-min Rain = 0
KDO1 142241Z 34007KT 05/02 A3007 RMK A01 T00450016  RH  081%=      5-min Rain = 0
KDO1 142242Z 34012KT 05/02 A3007 RMK A01 T00450015  RH  081%=      5-min Rain = 0
KDO1 142243Z 34013KT 05/01 A3007 RMK A01 T00450013  RH  080%=      5-min Rain = 0
KDO1 142244Z 34011KT 05/01 A3007 RMK A01 T00450013  RH  080%=      5-min Rain = 0
KDO1 142245Z 34010KT 05/01 A3007 RMK A01 T00460014  RH  080%=      5-min Rain = 0
KDO1 142246Z 34011KT 05/01 A3007 RMK A01 T00450014  RH  080%=      5-min Rain = 0
KDO1 142247Z 34009KT 05/02 A3007 RMK A01 T00460015  RH  080%=      5-min Rain = 0
KDO1 142248Z 34009KT 05/02 A3007 RMK A01 T00460016  RH  081%=      5-min Rain = 0
KDO1 142249Z 33013KT 05/02 A3007 RMK A01 T00470016  RH  081%=      5-min Rain = 0
KDO1 142250Z 34013KT 05/01 A3007 RMK A01 T00460014  RH  080%=      5-min Rain = 0
KDO1 142251Z 34015KT 05/01 A3007 RMK A01 T00470014  RH  079%=      5-min Rain = 0
KDO1 142252Z 34011KT 05/01 A3007 RMK A01 T00470014  RH  079%=      5-min Rain = 0
KDO1 142253Z 33010G16KT 05/02 A3007 RMK A01 T00470015  RH  080%=      5-min Rain = 0
KDO1 142254Z 33015KT 05/02 A3006 RMK A01 T00480015  RH  080%=      5-min Rain = 0
KDO1 142255Z 34014KT 05/01 A3006 RMK A01 T00480014  RH  079%=      5-min Rain = 0
KDO1 142256Z 34009KT 05/02 A3007 RMK A01 T00480015  RH  079%=      5-min Rain = 0
KDO1 142257Z 34013KT 05/02 A3007 RMK A01 T00480015  RH  079%=      5-min Rain = 0
KDO1 142258Z 33013KT 05/01 A3006 RMK A01 T00480014  RH  079%=      5-min Rain = 0
KDO1 142259Z 34012KT 05/01 A3006 RMK A01 T00480014  RH  079%=      5-min Rain = 0
KDO1 142300Z 34013KT 05/01 A3006 RMK A01 T00480014  RH  079%=      5-min Rain = 0
KDO1 142301Z 34011G16KT 05/01 A3006 RMK A01 T00480014  RH  078%=      5-min Rain = 0
KDO1 142302Z 34015G20KT 05/01 A3006 RMK A01 T00480014  RH  078%=      5-min Rain = 0
KDO1 142303Z 34014KT 05/01 A3006 RMK A01 T00490014  RH  078%=      5-min Rain = 0
KDO1 142304Z 34012G17KT 05/01 A3006 RMK A01 T00490014  RH  078%=      5-min Rain = 0
KDO1 142305Z 34013KT 05/01 A3007 RMK A01 T00490013  RH  078%=      5-min Rain = 0
KDO1 142306Z 34014KT 05/01 A3007 RMK A01 T00490012  RH  077%=      5-min Rain = 0
KDO1 142307Z 34014KT 05/01 A3007 RMK A01 T00490012  RH  077%=      5-min Rain = 0
KDO1 142308Z 34014KT 05/01 A3007 RMK A01 T00490012  RH  077%=      5-min Rain = 0
KDO1 142309Z 34012KT 05/01 A3007 RMK A01 T00490012  RH  077%=      5-min Rain = 0
KDO1 142310Z 34014KT 05/01 A3007 RMK A01 T00490013  RH  077%=      5-min Rain = 0
KDO1 142311Z 34012KT 05/01 A3007 RMK A01 T00490013  RH  077%=      5-min Rain = 0
KDO1 142312Z 34015KT 05/01 A3007 RMK A01 T00490012  RH  077%=      5-min Rain = 0
KDO1 142313Z 34015KT 05/01 A3007 RMK A01 T00490011  RH  077%=      5-min Rain = 0
KDO1 142314Z 35010KT 05/01 A3007 RMK A01 T00490012  RH  077%=      5-min Rain = 0
KDO1 142315Z 34010KT 05/01 A3007 RMK A01 T00490013  RH  077%=      5-min Rain = 0
KDO1 142316Z 35011KT 05/01 A3007 RMK A01 T00480012  RH  077%=      5-min Rain = 0
KDO1 142317Z 35010KT 05/01 A3007 RMK A01 T00480012  RH  077%=      5-min Rain = 0
KDO1 142318Z 35012KT 05/01 A3007 RMK A01 T00480011  RH  077%=      5-min Rain = 0
KDO1 142319Z 35011KT 05/01 A3007 RMK A01 T00480011  RH  077%=      5-min Rain = 0
KDO1 142320Z 34011KT 05/01 A3007 RMK A01 T00480011  RH  077%=      5-min Rain = 0
KDO1 142321Z 34010KT 05/01 A3007 RMK A01 T00480012  RH  077%=      5-min Rain = 0
KDO1 142322Z 34010KT 05/01 A3007 RMK A01 T00480012  RH  078%=      5-min Rain = 0
KDO1 142323Z 34011KT 05/01 A3007 RMK A01 T00470012  RH  078%=      5-min Rain = 0
KDO1 142324Z 34011KT 05/01 A3007 RMK A01 T00470011  RH  078%=      5-min Rain = 0
KDO1 142325Z 33009KT 05/01 A3007 RMK A01 T00470012  RH  078%=      5-min Rain = 0
KDO1 142326Z 33012G18KT 05/01 A3007 RMK A01 T00470012  RH  078%=      5-min Rain = 0
KDO1 142327Z 34011KT 05/01 A3007 RMK A01 T00470011  RH  077%=      5-min Rain = 0
KDO1 142328Z 34010KT 05/01 A3007 RMK A01 T00470011  RH  077%=      5-min Rain = 0
KDO1 142329Z 34010KT 05/01 A3007 RMK A01 T00470011  RH  077%=      5-min Rain = 0
KDO1 142330Z 33010KT 05/01 A3007 RMK A01 T00470011  RH  077%=      5-min Rain = 0
KDO1 142331Z 34011KT 05/01 A3007 RMK A01 T00470011  RH  077%=      5-min Rain = 0
KDO1 142332Z 34009KT 05/01 A3007 RMK A01 T00470010  RH  077%=      5-min Rain = 0
KDO1 142333Z 34010KT 05/01 A3007 RMK A01 T00470010  RH  077%=      5-min Rain = 0
KDO1 142334Z 33010KT 05/01 A3007 RMK A01 T00470011  RH  077%=      5-min Rain = 0
KDO1 142335Z 34013KT 05/01 A3007 RMK A01 T00470011  RH  077%=      5-min Rain = 0
KDO1 142336Z 34011KT 05/01 A3007 RMK A01 T00480010  RH  077%=      5-min Rain = 0
KDO1 142337Z 34012KT 05/01 A3007 RMK A01 T00480010  RH  077%=      5-min Rain = 0
KDO1 142338Z 34009G15KT 05/01 A3007 RMK A01 T00480010  RH  077%=      5-min Rain = 0
KDO1 142339Z 34013G18KT 05/01 A3007 RMK A01 T00480010  RH  077%=      5-min Rain = 0
KDO1 142340Z 34012KT 05/01 A3007 RMK A01 T00480009  RH  076%=      5-min Rain = 0
KDO1 142341Z 34010KT 05/01 A3007 RMK A01 T00480010  RH  076%=      5-min Rain = 0
KDO1 142342Z 33011KT 05/01 A3007 RMK A01 T00480010  RH  076%=      5-min Rain = 0
KDO1 142343Z 33010G15KT 05/01 A3007 RMK A01 T00480010  RH  076%=      5-min Rain = 0
KDO1 142344Z 33012KT 05/01 A3007 RMK A01 T00480010  RH  076%=      5-min Rain = 0
KDO1 142345Z 33010KT 05/01 A3007 RMK A01 T00480010  RH  076%=      5-min Rain = 0
KDO1 142346Z 33010KT 05/01 A3007 RMK A01 T00480010  RH  076%=      5-min Rain = 0
KDO1 142347Z 33012KT 05/01 A3007 RMK A01 T00480010  RH  076%=      5-min Rain = 0
KDO1 142348Z 33009KT 05/01 A3007 RMK A01 T00480009  RH  076%=      5-min Rain = 0
KDO1 142349Z 33011KT 05/01 A3008 RMK A01 T00480010  RH  076%=      5-min Rain = 0
KDO1 142350Z 33011KT 05/01 A3008 RMK A01 T00480010  RH  076%=      5-min Rain = 0
KDO1 142351Z 34009KT 05/01 A3008 RMK A01 T00480009  RH  076%=      5-min Rain = 0
KDO1 142352Z 33009KT 05/01 A3008 RMK A01 T00480010  RH  076%=      5-min Rain = 0
KDO1 142353Z 33008KT 05/01 A3008 RMK A01 T00490010  RH  076%=      5-min Rain = 0
KDO1 142354Z 34011KT 05/01 A3008 RMK A01 T00490009  RH  076%=      5-min Rain = 0
KDO1 142355Z 34009KT 05/01 A3008 RMK A01 T00490009  RH  075%=      5-min Rain = 0
KDO1 142356Z 34008KT 05/01 A3008 RMK A01 T00490010  RH  076%=      5-min Rain = 0
KDO1 142357Z 34009KT 05/01 A3008 RMK A01 T00490010  RH  076%=      5-min Rain = 0
KDO1 142358Z 34008KT 05/01 A3008 RMK A01 T00490010  RH  075%=      5-min Rain = 0
KDO1 142359Z 34009KT 05/01 A3008 RMK A01 T00490009  RH  075%=      5-min Rain = 0
KDO1 150000Z 34009KT 05/01 A3008 RMK A01 T00490008  RH  075%=      5-min Rain = 0
KDO1 150001Z 34008KT 05/01 A3008 RMK A01 T00500009  RH  075%=      5-min Rain = 0
KDO1 150002Z 34011KT 05/01 A3008 RMK A01 T00500009  RH  075%=      5-min Rain = 0
KDO1 150003Z 34008KT 05/01 A3008 RMK A01 T00500008  RH  074%=      5-min Rain = 0
KDO1 150004Z 34009KT 05/01 A3008 RMK A01 T00500009  RH  074%=      5-min Rain = 0
KDO1 150005Z 34008KT 05/01 A3008 RMK A01 T00500008  RH  074%=      5-min Rain = 0
KDO1 150006Z 34009KT 05/01 A3009 RMK A01 T00500009  RH  074%=      5-min Rain = 0
KDO1 150007Z 34008KT 05/01 A3009 RMK A01 T00500009  RH  075%=      5-min Rain = 0
KDO1 150008Z 35008KT 05/01 A3009 RMK A01 T00500009  RH  075%=      5-min Rain = 0
KDO1 150009Z 34008KT 05/01 A3009 RMK A01 T00500009  RH  075%=      5-min Rain = 0
KDO1 150010Z 34008KT 05/01 A3009 RMK A01 T00500009  RH  075%=      5-min Rain = 0
KDO1 150011Z 34008KT 05/01 A3009 RMK A01 T00500009  RH  075%=      5-min Rain = 0
KDO1 150012Z 34007KT 05/01 A3009 RMK A01 T00500009  RH  075%=      5-min Rain = 0
KDO1 150013Z 33009KT 05/01 A3009 RMK A01 T00500009  RH  075%=      5-min Rain = 0
KDO1 150014Z 33008KT 05/01 A3009 RMK A01 T00500009  RH  075%=      5-min Rain = 0
KDO1 150015Z 33009KT 05/01 A3009 RMK A01 T00500009  RH  075%=      5-min Rain = 0
KDO1 150016Z 34009KT 05/01 A3009 RMK A01 T00500009  RH  075%=      5-min Rain = 0
KDO1 150017Z 33009KT 05/01 A3009 RMK A01 T00500009  RH  075%=      5-min Rain = 0
KDO1 150018Z 33010KT 05/01 A3009 RMK A01 T00500009  RH  075%=      5-min Rain = 0
KDO1 150019Z 33008KT 05/01 A3009 RMK A01 T00490009  RH  075%=      5-min Rain = 0
KDO1 150020Z 33007KT 05/01 A3009 RMK A01 T00490009  RH  075%=      5-min Rain = 0
KDO1 150021Z 33008KT 05/01 A3009 RMK A01 T00490009  RH  075%=      5-min Rain = 0
KDO1 150022Z 33009KT 05/01 A3009 RMK A01 T00490009  RH  075%=      5-min Rain = 0
KDO1 150023Z 33009KT 05/01 A3009 RMK A01 T00490009  RH  075%=      5-min Rain = 0
KDO1 150024Z 33009KT 05/01 A3009 RMK A01 T00490008  RH  075%=      5-min Rain = 0
KDO1 150025Z 33008KT 05/01 A3009 RMK A01 T00490008  RH  075%=      5-min Rain = 0
KDO1 150026Z 33007KT 05/01 A3009 RMK A01 T00490009  RH  076%=      5-min Rain = 0
KDO1 150027Z 33009KT 05/01 A3009 RMK A01 T00480009  RH  075%=      5-min Rain = 0
KDO1 150028Z 33008KT 05/01 A3009 RMK A01 T00480009  RH  075%=      5-min Rain = 0
KDO1 150029Z 33009KT 05/01 A3009 RMK A01 T00480009  RH  076%=      5-min Rain = 0
KDO1 150030Z 33009KT 05/01 A3009 RMK A01 T00480009  RH  076%=      5-min Rain = 0
KDO1 150031Z 33010KT 05/01 A3009 RMK A01 T00480009  RH  075%=      5-min Rain = 0
KDO1 150032Z 33008KT 05/01 A3009 RMK A01 T00480008  RH  075%=      5-min Rain = 0
KDO1 150033Z 33007KT 05/01 A301 RMK A01 T00480008  RH  076%=      5-min Rain = 0
KDO1 150034Z 33008KT 05/01 A301 RMK A01 T00480008  RH  076%=      5-min Rain = 0
KDO1 150035Z 33009KT 05/01 A301 RMK A01 T00480008  RH  076%=      5-min Rain = 0
KDO1 150036Z 33008KT 05/01 A301 RMK A01 T00470008  RH  075%=      5-min Rain = 0
KDO1 150037Z 33008KT 05/01 A301 RMK A01 T00470008  RH  076%=      5-min Rain = 0
KDO1 150038Z 33008KT 05/01 A301 RMK A01 T00470008  RH  076%=      5-min Rain = 0
KDO1 150039Z 33008KT 05/01 A301 RMK A01 T00470008  RH  076%=      5-min Rain = 0
KDO1 150040Z 33008KT 05/01 A301 RMK A01 T00470008  RH  076%=      5-min Rain = 0
KDO1 150041Z 33009KT 05/01 A301 RMK A01 T00460008  RH  076%=      5-min Rain = 0
KDO1 150042Z 33008KT 05/01 A301 RMK A01 T00460008  RH  076%=      5-min Rain = 0
KDO1 150043Z 33009KT 05/01 A301 RMK A01 T00460007  RH  076%=      5-min Rain = 0
KDO1 150044Z 33008KT 05/01 A301 RMK A01 T00470008  RH  076%=      5-min Rain = 0
KDO1 150045Z 33008KT 05/01 A301 RMK A01 T00470008  RH  076%=      5-min Rain = 0
KDO1 150046Z 33008KT 05/01 A301 RMK A01 T00470008  RH  076%=      5-min Rain = 0
KDO1 150047Z 33008KT 05/01 A301 RMK A01 T00470008  RH  076%=      5-min Rain = 0
KDO1 150048Z 33009KT 05/01 A301 RMK A01 T00460008  RH  076%=      5-min Rain = 0
KDO1 150049Z 33009KT 05/01 A301 RMK A01 T00460008  RH  076%=      5-min Rain = 0
KDO1 150050Z 33009KT 05/01 A301 RMK A01 T00460007  RH  076%=      5-min Rain = 0
KDO1 150051Z 33007KT 05/01 A301 RMK A01 T00460007  RH  076%=      5-min Rain = 0
KDO1 150052Z 33008KT 05/01 A301 RMK A01 T00460007  RH  076%=      5-min Rain = 0
KDO1 150053Z 33008KT 05/01 A301 RMK A01 T00460007  RH  076%=      5-min Rain = 0
KDO1 150054Z 33007KT 05/01 A301 RMK A01 T00460007  RH  076%=      5-min Rain = 0
KDO1 150055Z 33009KT 05/01 A301 RMK A01 T00460007  RH  076%=      5-min Rain = 0
KDO1 150056Z 33009KT 05/01 A301 RMK A01 T00460007  RH  076%=      5-min Rain = 0
KDO1 150057Z 33008KT 05/01 A301 RMK A01 T00460007  RH  076%=      5-min Rain = 0
KDO1 150058Z 33007KT 05/01 A301 RMK A01 T00460007  RH  076%=      5-min Rain = 0
KDO1 150059Z 33008KT 05/01 A301 RMK A01 T00460008  RH  076%=      5-min Rain = 0
KDO1 150100Z 32008KT 05/01 A301 RMK A01 T00460008  RH  076%=      5-min Rain = 0
KDO1 150101Z 33008KT 05/01 A301 RMK A01 T00460007  RH  076%=      5-min Rain = 0
KDO1 150102Z 33009KT 05/01 A301 RMK A01 T00460008  RH  076%=      5-min Rain = 0
KDO1 150103Z 32009KT 05/01 A301 RMK A01 T00460007  RH  076%=      5-min Rain = 0
KDO1 150104Z 32009KT 05/01 A301 RMK A01 T00460007  RH  076%=      5-min Rain = 0
KDO1 150105Z 32010KT 05/01 A301 RMK A01 T00460007  RH  076%=      5-min Rain = 0
KDO1 150106Z 32008KT 05/01 A301 RMK A01 T00470007  RH  075%=      5-min Rain = 0
KDO1 150107Z 32010KT 05/01 A301 RMK A01 T00470007  RH  075%=      5-min Rain = 0
KDO1 150108Z 32010KT 05/01 A3011 RMK A01 T00470007  RH  075%=      5-min Rain = 0
KDO1 150109Z 32009KT 05/01 A3011 RMK A01 T00470007  RH  075%=      5-min Rain = 0
KDO1 150110Z 33009KT 05/01 A3011 RMK A01 T00470007  RH  075%=      5-min Rain = 0
KDO1 150111Z 32009KT 05/01 A3011 RMK A01 T00470007  RH  075%=      5-min Rain = 0
KDO1 150112Z 32009KT 05/01 A3011 RMK A01 T00470007  RH  075%=      5-min Rain = 0
KDO1 150113Z 32009KT 05/01 A3011 RMK A01 T00470007  RH  075%=      5-min Rain = 0
KDO1 150114Z 32009KT 05/01 A3011 RMK A01 T00470007  RH  075%=      5-min Rain = 0
KDO1 150115Z 32009KT 05/01 A3011 RMK A01 T00480007  RH  075%=      5-min Rain = 0
KDO1 150116Z 32010KT 05/01 A3011 RMK A01 T00480006  RH  075%=      5-min Rain = 0
KDO1 150117Z 32009KT 05/01 A3011 RMK A01 T00480006  RH  074%=      5-min Rain = 0
KDO1 150118Z 32010KT 05/01 A3011 RMK A01 T00480007  RH  075%=      5-min Rain = 0
KDO1 150119Z 33011KT 05/01 A3011 RMK A01 T00480007  RH  074%=      5-min Rain = 0
KDO1 150120Z 32010KT 05/01 A3011 RMK A01 T00480007  RH  074%=      5-min Rain = 0
KDO1 150121Z 32010KT 05/01 A3011 RMK A01 T00480007  RH  074%=      5-min Rain = 0
KDO1 150122Z 32009KT 05/01 A3011 RMK A01 T00480007  RH  075%=      5-min Rain = 0
KDO1 150123Z 33010KT 05/01 A3011 RMK A01 T00480007  RH  075%=      5-min Rain = 0
KDO1 150124Z 33009KT 05/01 A3011 RMK A01 T00480007  RH  075%=      5-min Rain = 0
KDO1 150125Z 33009KT 05/01 A3011 RMK A01 T00480007  RH  075%=      5-min Rain = 0
KDO1 150126Z 33010KT 05/01 A3011 RMK A01 T00480007  RH  075%=      5-min Rain = 0
KDO1 150127Z 32010KT 05/01 A3011 RMK A01 T00480007  RH  075%=      5-min Rain = 0
KDO1 150128Z 32009KT 05/01 A3011 RMK A01 T00480007  RH  075%=      5-min Rain = 0
KDO1 150129Z 33011KT 05/01 A3011 RMK A01 T00480007  RH  075%=      5-min Rain = 0
KDO1 150130Z 32009KT 05/01 A3011 RMK A01 T00480007  RH  075%=      5-min Rain = 0
KDO1 150131Z 32009KT 05/01 A3011 RMK A01 T00480007  RH  075%=      5-min Rain = 0
KDO1 150132Z 33009KT 05/01 A3011 RMK A01 T00480007  RH  075%=      5-min Rain = 0
KDO1 150133Z 32010KT 05/01 A3011 RMK A01 T00480007  RH  075%=      5-min Rain = 0
KDO1 150134Z 32009KT 05/01 A3011 RMK A01 T00480007  RH  075%=      5-min Rain = 0
KDO1 150135Z 32010KT 05/01 A3011 RMK A01 T00480007  RH  075%=      5-min Rain = 0
KDO1 150136Z 32010KT 05/01 A3011 RMK A01 T00480007  RH  075%=      5-min Rain = 0
KDO1 150137Z 33010KT 05/01 A3011 RMK A01 T00480007  RH  075%=      5-min Rain = 0
KDO1 150138Z 33011KT 05/01 A3011 RMK A01 T00480006  RH  074%=      5-min Rain = 0
KDO1 150139Z 33010KT 05/01 A3011 RMK A01 T00480007  RH  074%=      5-min Rain = 0
KDO1 150140Z 32010KT 05/01 A3011 RMK A01 T00480006  RH  074%=      5-min Rain = 0
KDO1 150141Z 32012KT 05/01 A3011 RMK A01 T00490006  RH  074%=      5-min Rain = 0
KDO1 150142Z 32011KT 05/01 A3011 RMK A01 T00490006  RH  074%=      5-min Rain = 0
KDO1 150143Z 32011KT 05/01 A3011 RMK A01 T00490006  RH  074%=      5-min Rain = 0
KDO1 150144Z 32011KT 05/01 A3011 RMK A01 T00490005  RH  073%=      5-min Rain = 0
KDO1 150145Z 32010KT 05/01 A3011 RMK A01 T00490006  RH  073%=      5-min Rain = 0
KDO1 150146Z 32012KT 05/01 A3011 RMK A01 T00500005  RH  073%=      5-min Rain = 0
KDO1 150147Z 32011KT 05/01 A3011 RMK A01 T00500005  RH  073%=      5-min Rain = 0
KDO1 150148Z 32010KT 05/01 A3012 RMK A01 T00500005  RH  073%=      5-min Rain = 0
KDO1 150149Z 32011KT 05/01 A3012 RMK A01 T00500005  RH  073%=      5-min Rain = 0
KDO1 150150Z 32011KT 05/01 A3012 RMK A01 T00500005  RH  073%=      5-min Rain = 0
KDO1 150151Z 32011KT 05/01 A3012 RMK A01 T00500006  RH  073%=      5-min Rain = 0
KDO1 150152Z 32010KT 05/01 A3012 RMK A01 T00500005  RH  073%=      5-min Rain = 0
KDO1 150153Z 32011KT 05/01 A3012 RMK A01 T00500006  RH  073%=      5-min Rain = 0
KDO1 150154Z 32011KT 05/01 A3012 RMK A01 T00500005  RH  073%=      5-min Rain = 0
KDO1 150155Z 32011KT 05/01 A3012 RMK A01 T00500005  RH  073%=      5-min Rain = 0
KDO1 150156Z 32011KT 05/01 A3012 RMK A01 T00490005  RH  073%=      5-min Rain = 0
KDO1 150157Z 32011KT 05/01 A3012 RMK A01 T00500005  RH  073%=      5-min Rain = 0
KDO1 150158Z 32009G14KT 05/01 A3012 RMK A01 T00490005  RH  073%=      5-min Rain = 0
KDO1 150159Z 32011KT 05/01 A3012 RMK A01 T00500005  RH  073%=      5-min Rain = 0
KDO1 150200Z 32010KT 05/01 A3012 RMK A01 T00490005  RH  073%=      5-min Rain = 0
KDO1 150201Z 32010KT 05/01 A3012 RMK A01 T00490005  RH  073%=      5-min Rain = 0
KDO1 150202Z 32011KT 05/01 A3012 RMK A01 T00490005  RH  073%=      5-min Rain = 0
KDO1 150203Z 32009KT 05/00 A3012 RMK A01 T00490004  RH  073%=      5-min Rain = 0
KDO1 150204Z 32010KT 05/00 A3012 RMK A01 T00490004  RH  073%=      5-min Rain = 0
KDO1 150205Z 32009KT 05/01 A3012 RMK A01 T00490005  RH  073%=      5-min Rain = 0
KDO1 150206Z 32010KT 05/01 A3012 RMK A01 T00490005  RH  073%=      5-min Rain = 0
KDO1 150207Z 32009KT 05/01 A3012 RMK A01 T00490005  RH  073%=      5-min Rain = 0
KDO1 150208Z 32009KT 05/00 A3012 RMK A01 T00480004  RH  073%=      5-min Rain = 0
KDO1 150209Z 32009KT 05/01 A3012 RMK A01 T00480005  RH  074%=      5-min Rain = 0
KDO1 150210Z 32010KT 05/00 A3012 RMK A01 T00480004  RH  074%=      5-min Rain = 0
KDO1 150211Z 32010KT 05/00 A3012 RMK A01 T00470004  RH  073%=      5-min Rain = 0
KDO1 150212Z 32010KT 05/00 A3012 RMK A01 T00470004  RH  073%=      5-min Rain = 0
KDO1 150213Z 32009KT 05/00 A3012 RMK A01 T00470004  RH  073%=      5-min Rain = 0
KDO1 150214Z 32009KT 05/00 A3012 RMK A01 T00470003  RH  073%=      5-min Rain = 0
KDO1 150215Z 32010KT 05/00 A3012 RMK A01 T00480004  RH  073%=      5-min Rain = 0
KDO1 150216Z 32009KT 05/00 A3012 RMK A01 T00470003  RH  073%=      5-min Rain = 0
KDO1 150217Z 32009KT 05/00 A3013 RMK A01 T00470004  RH  073%=      5-min Rain = 0
KDO1 150218Z 32009KT 05/00 A3013 RMK A01 T00470003  RH  073%=      5-min Rain = 0
KDO1 150219Z 32010KT 05/00 A3013 RMK A01 T00470004  RH  073%=      5-min Rain = 0
KDO1 150220Z 32009KT 05/00 A3013 RMK A01 T00470003  RH  073%=      5-min Rain = 0
KDO1 150221Z 32010KT 05/00 A3013 RMK A01 T00470003  RH  073%=      5-min Rain = 0
KDO1 150222Z 32009KT 05/00 A3013 RMK A01 T00470003  RH  073%=      5-min Rain = 0
KDO1 150223Z 32009KT 05/00 A3013 RMK A01 T00470003  RH  073%=      5-min Rain = 0
KDO1 150224Z 32009KT 05/00 A3013 RMK A01 T00470002  RH  073%=      5-min Rain = 0
KDO1 150225Z 32009KT 05/00 A3013 RMK A01 T00470003  RH  073%=      5-min Rain = 0
KDO1 150226Z 32009KT 05/00 A3013 RMK A01 T00460003  RH  073%=      5-min Rain = 0
KDO1 150227Z 32009KT 05/00 A3013 RMK A01 T00460003  RH  074%=      5-min Rain = 0
KDO1 150228Z 32009KT 05/00 A3013 RMK A01 T00460003  RH  074%=      5-min Rain = 0
KDO1 150229Z 32009KT 05/00 A3013 RMK A01 T00460003  RH  074%=      5-min Rain = 0
KDO1 150230Z 32008KT 05/00 A3013 RMK A01 T00460003  RH  074%=      5-min Rain = 0
KDO1 150231Z 32008KT 05/00 A3013 RMK A01 T00460003  RH  074%=      5-min Rain = 0
KDO1 150232Z 32009KT 05/00 A3013 RMK A01 T00460003  RH  074%=      5-min Rain = 0
KDO1 150233Z 32008KT 05/00 A3013 RMK A01 T00460003  RH  074%=      5-min Rain = 0
KDO1 150234Z 32008KT 05/00 A3013 RMK A01 T00450003  RH  074%=      5-min Rain = 0
KDO1 150235Z 32009KT 05/00 A3013 RMK A01 T00460003  RH  074%=      5-min Rain = 0
KDO1 150236Z 32009KT 05/00 A3013 RMK A01 T00450003  RH  074%=      5-min Rain = 0
KDO1 150237Z 32008KT 05/00 A3013 RMK A01 T00450003  RH  074%=      5-min Rain = 0
KDO1 150238Z 32009KT 05/00 A3013 RMK A01 T00450003  RH  074%=      5-min Rain = 0
KDO1 150239Z 32008KT 05/00 A3013 RMK A01 T00450002  RH  074%=      5-min Rain = 0
KDO1 150240Z 32008KT 05/00 A3013 RMK A01 T00450002  RH  073%=      5-min Rain = 0
KDO1 150241Z 32009KT 05/00 A3013 RMK A01 T00460002  RH  073%=      5-min Rain = 0
KDO1 150242Z 32009KT 05/00 A3013 RMK A01 T00460002  RH  073%=      5-min Rain = 0
KDO1 150243Z 32008KT 05/00 A3013 RMK A01 T00460002  RH  073%=      5-min Rain = 0
KDO1 150244Z 32008KT 05/00 A3013 RMK A01 T00460002  RH  073%=      5-min Rain = 0
KDO1 150245Z 33008KT 05/00 A3013 RMK A01 T00460002  RH  073%=      5-min Rain = 0
KDO1 150246Z 33008KT 05/00 A3013 RMK A01 T00450002  RH  073%=      5-min Rain = 0
KDO1 150247Z 32008KT 05/00 A3013 RMK A01 T00450001  RH  073%=      5-min Rain = 0
KDO1 150248Z 32009KT 05/00 A3013 RMK A01 T00450001  RH  073%=      5-min Rain = 0
KDO1 150249Z 32008KT 04/00 A3013 RMK A01 T00440001  RH  073%=      5-min Rain = 0
KDO1 150250Z 32008KT 05/00 A3013 RMK A01 T00450001  RH  073%=      5-min Rain = 0
KDO1 150251Z 32009KT 04/00 A3013 RMK A01 T004400-0  RH  073%=      5-min Rain = 0
KDO1 150252Z 32008KT 04/00 A3013 RMK A01 T004400-0  RH  073%=      5-min Rain = 0
KDO1 150253Z 32008KT 04/M00 A3013 RMK A01 T00441001  RH  073%=      5-min Rain = 0
KDO1 150254Z 32007KT 04/M00 A3013 RMK A01 T00431001  RH  073%=      5-min Rain = 0
KDO1 150255Z 32008KT 04/M00 A3013 RMK A01 T00431001  RH  073%=      5-min Rain = 0
KDO1 150256Z 32008KT 04/M00 A3014 RMK A01 T00431001  RH  073%=      5-min Rain = 0
KDO1 150257Z 32008KT 04/M00 A3014 RMK A01 T00421002  RH  073%=      5-min Rain = 0
KDO1 150258Z 33007KT 04/M00 A3014 RMK A01 T00411002  RH  073%=      5-min Rain = 0
KDO1 150259Z 32007KT 04/M00 A3014 RMK A01 T00411002  RH  074%=      5-min Rain = 0
KDO1 150300Z 32007KT 04/M00 A3014 RMK A01 T00411002  RH  074%=      5-min Rain = 0
KDO1 150301Z 32007KT 04/M00 A3014 RMK A01 T00401003  RH  074%=      5-min Rain = 0
KDO1 150302Z 32007KT 04/M00 A3014 RMK A01 T00401002  RH  074%=      5-min Rain = 0
KDO1 150303Z 32007KT 04/M00 A3014 RMK A01 T00391003  RH  074%=      5-min Rain = 0
KDO1 150304Z 32008KT 04/M00 A3014 RMK A01 T00391003  RH  074%=      5-min Rain = 0
KDO1 150305Z 32009KT 04/M00 A3014 RMK A01 T00391003  RH  074%=      5-min Rain = 0
KDO1 150306Z 32009KT 04/M00 A3014 RMK A01 T00391003  RH  074%=      5-min Rain = 0
KDO1 150307Z 32008KT 04/M00 A3014 RMK A01 T00381004  RH  074%=      5-min Rain = 0
KDO1 150308Z 32008KT 04/M00 A3014 RMK A01 T00391004  RH  074%=      5-min Rain = 0
KDO1 150309Z 32010KT 04/M00 A3014 RMK A01 T00381004  RH  074%=      5-min Rain = 0
KDO1 150310Z 32010KT 04/M00 A3014 RMK A01 T00391004  RH  074%=      5-min Rain = 0
KDO1 150311Z 32010KT 04/M00 A3014 RMK A01 T00391004  RH  074%=      5-min Rain = 0
KDO1 150312Z 32010KT 04/M01 A3014 RMK A01 T00381005  RH  074%=      5-min Rain = 0
KDO1 150313Z 32010KT 04/M01 A3014 RMK A01 T00391005  RH  073%=      5-min Rain = 0
KDO1 150314Z 32010KT 04/M01 A3014 RMK A01 T00391005  RH  073%=      5-min Rain = 0
KDO1 150315Z 32010KT 04/M01 A3014 RMK A01 T00391005  RH  073%=      5-min Rain = 0
KDO1 150316Z 32010KT 04/M01 A3014 RMK A01 T00391005  RH  073%=      5-min Rain = 0
KDO1 150317Z 32010KT 04/M01 A3014 RMK A01 T00391005  RH  073%=      5-min Rain = 0
KDO1 150318Z 32011KT 04/M01 A3014 RMK A01 T00391005  RH  073%=      5-min Rain = 0
KDO1 150319Z 32010KT 04/M01 A3014 RMK A01 T00391005  RH  073%=      5-min Rain = 0
KDO1 150320Z 32010KT 04/M01 A3014 RMK A01 T00391005  RH  073%=      5-min Rain = 0
KDO1 150321Z 32010KT 04/M01 A3014 RMK A01 T00381006  RH  073%=      5-min Rain = 0
KDO1 150322Z 31010KT 04/M01 A3014 RMK A01 T00391005  RH  073%=      5-min Rain = 0
KDO1 150323Z 32011KT 04/M01 A3014 RMK A01 T00391005  RH  073%=      5-min Rain = 0
KDO1 150324Z 32010KT 04/M01 A3014 RMK A01 T00391006  RH  073%=      5-min Rain = 0
KDO1 150325Z 32010KT 04/M01 A3014 RMK A01 T00391006  RH  073%=      5-min Rain = 0
KDO1 150326Z 32010KT 04/M01 A3014 RMK A01 T00381006  RH  073%=      5-min Rain = 0
KDO1 150327Z 32010KT 04/M01 A3014 RMK A01 T00381006  RH  073%=      5-min Rain = 0
KDO1 150328Z 32010KT 04/M01 A3014 RMK A01 T00381006  RH  073%=      5-min Rain = 0
KDO1 150329Z 31009KT 04/M01 A3014 RMK A01 T00381006  RH  073%=      5-min Rain = 0
KDO1 150330Z 32010KT 04/M01 A3014 RMK A01 T00381006  RH  073%=      5-min Rain = 0
KDO1 150331Z 32009KT 04/M01 A3014 RMK A01 T00381006  RH  073%=      5-min Rain = 0
KDO1 150332Z 32009KT 04/M01 A3014 RMK A01 T00381006  RH  073%=      5-min Rain = 0
KDO1 150333Z 31009KT 04/M01 A3014 RMK A01 T00381007  RH  073%=      5-min Rain = 0
KDO1 150334Z 32010KT 04/M01 A3014 RMK A01 T00371007  RH  073%=      5-min Rain = 0
KDO1 150335Z 31010KT 04/M01 A3014 RMK A01 T00371007  RH  073%=      5-min Rain = 0
KDO1 150336Z 31009KT 04/M01 A3014 RMK A01 T00371008  RH  073%=      5-min Rain = 0
KDO1 150337Z 31009KT 04/M01 A3014 RMK A01 T00371008  RH  072%=      5-min Rain = 0
KDO1 150338Z 32010KT 04/M01 A3014 RMK A01 T00371008  RH  073%=      5-min Rain = 0
KDO1 150339Z 31010KT 04/M01 A3014 RMK A01 T00371008  RH  073%=      5-min Rain = 0
KDO1 150340Z 31009KT 04/M01 A3014 RMK A01 T00371008  RH  073%=      5-min Rain = 0
KDO1 150341Z 31009KT 04/M01 A3014 RMK A01 T00361008  RH  073%=      5-min Rain = 0
KDO1 150342Z 31010KT 04/M01 A3014 RMK A01 T00361008  RH  073%=      5-min Rain = 0
KDO1 150343Z 31010KT 04/M01 A3014 RMK A01 T00361008  RH  073%=      5-min Rain = 0
KDO1 150344Z 31010KT 04/M01 A3014 RMK A01 T00371008  RH  073%=      5-min Rain = 0
KDO1 150345Z 32010KT 04/M01 A3014 RMK A01 T00371008  RH  073%=      5-min Rain = 0
KDO1 150346Z 31010KT 04/M01 A3014 RMK A01 T00371008  RH  072%=      5-min Rain = 0
KDO1 150347Z 31010KT 04/M01 A3014 RMK A01 T00371008  RH  072%=      5-min Rain = 0
KDO1 150348Z 31011KT 04/M01 A3014 RMK A01 T00371008  RH  072%=      5-min Rain = 0
KDO1 150349Z 31010KT 04/M01 A3014 RMK A01 T00371008  RH  072%=      5-min Rain = 0
KDO1 150350Z 31010KT 04/M01 A3014 RMK A01 T00371009  RH  072%=      5-min Rain = 0
KDO1 150351Z 31009KT 04/M01 A3014 RMK A01 T00371009  RH  072%=      5-min Rain = 0
KDO1 150352Z 31009KT 04/M01 A3014 RMK A01 T00371008  RH  072%=      5-min Rain = 0
KDO1 150353Z 31010KT 04/M01 A3014 RMK A01 T00371008  RH  072%=      5-min Rain = 0
KDO1 150354Z 31010KT 04/M01 A3014 RMK A01 T00361009  RH  073%=      5-min Rain = 0
KDO1 150355Z 31009KT 04/M01 A3014 RMK A01 T00351009  RH  073%=      5-min Rain = 0
KDO1 150356Z 31010KT 04/M01 A3014 RMK A01 T00351009  RH  073%=      5-min Rain = 0
KDO1 150357Z 30010KT 04/M01 A3014 RMK A01 T00351009  RH  073%=      5-min Rain = 0
KDO1 150358Z 31009KT 04/M01 A3014 RMK A01 T00351009  RH  073%=      5-min Rain = 0
KDO1 150359Z 31010KT 04/M01 A3014 RMK A01 T00351010  RH  073%=      5-min Rain = 0
KDO1 150400Z 31009KT 04/M01 A3014 RMK A01 T00351009  RH  073%=      5-min Rain = 0
KDO1 150401Z 31008KT 04/M01 A3014 RMK A01 T00351009  RH  073%=      5-min Rain = 0
KDO1 150402Z 31009KT 04/M01 A3014 RMK A01 T00351009  RH  073%=      5-min Rain = 0
KDO1 150403Z 31009KT 04/M01 A3014 RMK A01 T00351009  RH  073%=      5-min Rain = 0
KDO1 150404Z 31010KT 04/M01 A3014 RMK A01 T00351009  RH  073%=      5-min Rain = 0
KDO1 150405Z 30009KT 04/M01 A3014 RMK A01 T00351009  RH  073%=      5-min Rain = 0
KDO1 150406Z 31009KT 04/M01 A3014 RMK A01 T00351009  RH  073%=      5-min Rain = 0
KDO1 150407Z 31010KT 04/M01 A3014 RMK A01 T00351009  RH  073%=      5-min Rain = 0
KDO1 150408Z 31009KT 04/M01 A3014 RMK A01 T00351009  RH  073%=      5-min Rain = 0
KDO1 150409Z 31010KT 03/M01 A3014 RMK A01 T00341010  RH  073%=      5-min Rain = 0
KDO1 150410Z 30009KT 03/M01 A3014 RMK A01 T00341010  RH  073%=      5-min Rain = 0
KDO1 150411Z 30010KT 03/M01 A3014 RMK A01 T00341010  RH  073%=      5-min Rain = 0
KDO1 150412Z 30009KT 03/M01 A3014 RMK A01 T00341010  RH  073%=      5-min Rain = 0
KDO1 150413Z 30010KT 03/M01 A3014 RMK A01 T00341010  RH  073%=      5-min Rain = 0
KDO1 150414Z 30010KT 03/M01 A3014 RMK A01 T00331010  RH  073%=      5-min Rain = 0
KDO1 150415Z 30009KT 03/M01 A3014 RMK A01 T00331010  RH  073%=      5-min Rain = 0
KDO1 150416Z 31009KT 03/M01 A3014 RMK A01 T00321010  RH  074%=      5-min Rain = 0
KDO1 150417Z 30010KT 03/M01 A3014 RMK A01 T00321010  RH  074%=      5-min Rain = 0
KDO1 150418Z 30009KT 03/M01 A3014 RMK A01 T00321010  RH  074%=      5-min Rain = 0
KDO1 150419Z 30009KT 03/M01 A3014 RMK A01 T00321010  RH  074%=      5-min Rain = 0
KDO1 150420Z 30009KT 03/M01 A3014 RMK A01 T00321010  RH  074%=      5-min Rain = 0
KDO1 150421Z 30008KT 03/M01 A3014 RMK A01 T00321010  RH  073%=      5-min Rain = 0
KDO1 150422Z 30009KT 03/M01 A3015 RMK A01 T00331010  RH  073%=      5-min Rain = 0
KDO1 150423Z 30008KT 03/M01 A3014 RMK A01 T00321011  RH  074%=      5-min Rain = 0
KDO1 150424Z 30007KT 03/M01 A3014 RMK A01 T00311011  RH  074%=      5-min Rain = 0
KDO1 150425Z 30007KT 03/M01 A3014 RMK A01 T00311011  RH  074%=      5-min Rain = 0
KDO1 150426Z 30007KT 03/M01 A3014 RMK A01 T00301011  RH  074%=      5-min Rain = 0
KDO1 150427Z 30008KT 03/M01 A3014 RMK A01 T00301011  RH  074%=      5-min Rain = 0
KDO1 150428Z 30008KT 03/M01 A3014 RMK A01 T00291012  RH  074%=      5-min Rain = 0
KDO1 150429Z 30009KT 03/M01 A3015 RMK A01 T00291012  RH  075%=      5-min Rain = 0
KDO1 150430Z 30008KT 03/M01 A3014 RMK A01 T00281013  RH  075%=      5-min Rain = 0
KDO1 150431Z 30008KT 03/M01 A3015 RMK A01 T00271013  RH  075%=      5-min Rain = 0
KDO1 150432Z 29008KT 03/M01 A3014 RMK A01 T00271012  RH  075%=      5-min Rain = 0
KDO1 150433Z 30008KT 03/M01 A3014 RMK A01 T00271013  RH  075%=      5-min Rain = 0
KDO1 150434Z 30008KT 03/M01 A3014 RMK A01 T00261013  RH  075%=      5-min Rain = 0
KDO1 150435Z 29010KT 03/M01 A3014 RMK A01 T00261013  RH  076%=      5-min Rain = 0
KDO1 150436Z 30009KT 03/M01 A3014 RMK A01 T00251013  RH  076%=      5-min Rain = 0
KDO1 150437Z 29009KT 03/M01 A3014 RMK A01 T00251013  RH  076%=      5-min Rain = 0
KDO1 150438Z 30009KT 03/M01 A3014 RMK A01 T00251013  RH  076%=      5-min Rain = 0
KDO1 150439Z 30010KT 03/M01 A3014 RMK A01 T00251013  RH  076%=      5-min Rain = 0
KDO1 150440Z 29009KT 02/M01 A3014 RMK A01 T00241013  RH  076%=      5-min Rain = 0
KDO1 150441Z 30009KT 02/M01 A3014 RMK A01 T00241013  RH  076%=      5-min Rain = 0
KDO1 150442Z 29009KT 02/M01 A3014 RMK A01 T00241013  RH  077%=      5-min Rain = 0
KDO1 150443Z 29009KT 02/M01 A3014 RMK A01 T00231014  RH  077%=      5-min Rain = 0
KDO1 150444Z 29009KT 02/M01 A3015 RMK A01 T00231013  RH  077%=      5-min Rain = 0
KDO1 150445Z 30009KT 02/M01 A3015 RMK A01 T00221014  RH  077%=      5-min Rain = 0
KDO1 150446Z 29009KT 02/M01 A3015 RMK A01 T00211014  RH  077%=      5-min Rain = 0
KDO1 150447Z 29009KT 02/M02 A3015 RMK A01 T00201015  RH  078%=      5-min Rain = 0
KDO1 150448Z 29009KT 02/M02 A3015 RMK A01 T00201015  RH  078%=      5-min Rain = 0
KDO1 150449Z 29009KT 02/M02 A3014 RMK A01 T00201015  RH  078%=      5-min Rain = 0
KDO1 150450Z 29009KT 02/M02 A3014 RMK A01 T00191015  RH  078%=      5-min Rain = 0
KDO1 150451Z 29009KT 02/M02 A3014 RMK A01 T00191015  RH  078%=      5-min Rain = 0
KDO1 150452Z 29009KT 02/M01 A3014 RMK A01 T00191014  RH  078%=      5-min Rain = 0
KDO1 150453Z 30009KT 02/M02 A3014 RMK A01 T00191015  RH  078%=      5-min Rain = 0
KDO1 150454Z 29009KT 02/M02 A3014 RMK A01 T00191015  RH  078%=      5-min Rain = 0
KDO1 150455Z 29009KT 02/M01 A3014 RMK A01 T00191014  RH  079%=      5-min Rain = 0
KDO1 150456Z 29009KT 02/M01 A3014 RMK A01 T00191014  RH  079%=      5-min Rain = 0
KDO1 150457Z 30009KT 02/M01 A3014 RMK A01 T00191014  RH  079%=      5-min Rain = 0
KDO1 150458Z 29009KT 02/M01 A3014 RMK A01 T00191014  RH  079%=      5-min Rain = 0
KDO1 150459Z 30009KT 02/M01 A3014 RMK A01 T00191014  RH  079%=      5-min Rain = 0
KDO1 150500Z 29009KT 02/M01 A3014 RMK A01 T00191014  RH  079%=      5-min Rain = 0
KDO1 150501Z 29009KT 02/M02 A3014 RMK A01 T00191015  RH  078%=      5-min Rain = 0
KDO1 150502Z 29009KT 02/M01 A3014 RMK A01 T00191014  RH  078%=      5-min Rain = 0
KDO1 150503Z 29009KT 02/M01 A3014 RMK A01 T00191014  RH  078%=      5-min Rain = 0
KDO1 150504Z 29008KT 02/M01 A3014 RMK A01 T00191014  RH  078%=      5-min Rain = 0
KDO1 150505Z 29009KT 02/M01 A3014 RMK A01 T00191014  RH  078%=      5-min Rain = 0
KDO1 150506Z 30008KT 02/M01 A3014 RMK A01 T00191014  RH  078%=      5-min Rain = 0
KDO1 150507Z 29008KT 02/M01 A3014 RMK A01 T00191014  RH  079%=      5-min Rain = 0
KDO1 150508Z 30008KT 02/M02 A3014 RMK A01 T00191015  RH  079%=      5-min Rain = 0
KDO1 150509Z 29008KT 02/M02 A3014 RMK A01 T00181015  RH  079%=      5-min Rain = 0
KDO1 150510Z 29008KT 02/M02 A3014 RMK A01 T00181015  RH  079%=      5-min Rain = 0
KDO1 150511Z 30009KT 02/M02 A3014 RMK A01 T00181015  RH  079%=      5-min Rain = 0
KDO1 150512Z 29008KT 02/M02 A3014 RMK A01 T00181015  RH  079%=      5-min Rain = 0
KDO1 150513Z 30008KT 02/M02 A3014 RMK A01 T00181015  RH  079%=      5-min Rain = 0
KDO1 150514Z 30008KT 02/M02 A3014 RMK A01 T00181015  RH  079%=      5-min Rain = 0
KDO1 150515Z 30009KT 02/M02 A3014 RMK A01 T00181015  RH  079%=      5-min Rain = 0
KDO1 150516Z 30008KT 02/M02 A3014 RMK A01 T00181015  RH  079%=      5-min Rain = 0
KDO1 150517Z 29009KT 02/M02 A3014 RMK A01 T00191015  RH  079%=      5-min Rain = 0
KDO1 150518Z 30008KT 02/M01 A3014 RMK A01 T00191014  RH  079%=      5-min Rain = 0
KDO1 150519Z 29009KT 02/M01 A3014 RMK A01 T00191014  RH  079%=      5-min Rain = 0
KDO1 150520Z 30008KT 02/M01 A3014 RMK A01 T00201014  RH  079%=      5-min Rain = 0
KDO1 150521Z 29008KT 02/M01 A3014 RMK A01 T00201013  RH  078%=      5-min Rain = 0
KDO1 150522Z 30008KT 02/M01 A3014 RMK A01 T00201014  RH  078%=      5-min Rain = 0
KDO1 150523Z 29009KT 02/M01 A3014 RMK A01 T00211013  RH  078%=      5-min Rain = 0
KDO1 150524Z 29008KT 02/M01 A3014 RMK A01 T00211013  RH  078%=      5-min Rain = 0
KDO1 150525Z 30008KT 02/M01 A3014 RMK A01 T00211013  RH  078%=      5-min Rain = 0
KDO1 150526Z 30008KT 02/M01 A3014 RMK A01 T00211013  RH  078%=      5-min Rain = 0
KDO1 150527Z 30008KT 02/M01 A3014 RMK A01 T00211013  RH  078%=      5-min Rain = 0
KDO1 150528Z 30008KT 02/M01 A3014 RMK A01 T00211014  RH  078%=      5-min Rain = 0
KDO1 150529Z 30008KT 02/M01 A3014 RMK A01 T00211013  RH  078%=      5-min Rain = 0
KDO1 150530Z 30008KT 02/M01 A3014 RMK A01 T00211013  RH  078%=      5-min Rain = 0
KDO1 150531Z 30008KT 02/M01 A3014 RMK A01 T00211013  RH  078%=      5-min Rain = 0
KDO1 150532Z 30008KT 02/M01 A3014 RMK A01 T00211013  RH  078%=      5-min Rain = 0
KDO1 150533Z 30008KT 02/M01 A3014 RMK A01 T00211013  RH  078%=      5-min Rain = 0
KDO1 150534Z 30008KT 02/M01 A3014 RMK A01 T00221013  RH  078%=      5-min Rain = 0
KDO1 150535Z 30008KT 02/M01 A3014 RMK A01 T00221013  RH  078%=      5-min Rain = 0
KDO1 150536Z 30009KT 02/M01 A3014 RMK A01 T00221013  RH  078%=      5-min Rain = 0
KDO1 150537Z 30009KT 02/M01 A3014 RMK A01 T00221013  RH  078%=      5-min Rain = 0
KDO1 150538Z 30009KT 02/M01 A3014 RMK A01 T00221013  RH  077%=      5-min Rain = 0
KDO1 150539Z 30008KT 02/M01 A3014 RMK A01 T00221013  RH  077%=      5-min Rain = 0
KDO1 150540Z 30009KT 02/M01 A3014 RMK A01 T00221013  RH  077%=      5-min Rain = 0
KDO1 150541Z 29009KT 02/M01 A3015 RMK A01 T00231013  RH  077%=      5-min Rain = 0
KDO1 150542Z 30008KT 02/M01 A3015 RMK A01 T00231013  RH  077%=      5-min Rain = 0
KDO1 150543Z 30008KT 02/M01 A3015 RMK A01 T00231013  RH  077%=      5-min Rain = 0
KDO1 150544Z 30008KT 02/M01 A3015 RMK A01 T00231013  RH  077%=      5-min Rain = 0
KDO1 150545Z 30009KT 02/M01 A3015 RMK A01 T00241012  RH  077%=      5-min Rain = 0
KDO1 150546Z 30008KT 03/M01 A3015 RMK A01 T00251012  RH  077%=      5-min Rain = 0
KDO1 150547Z 31009KT 03/M01 A3015 RMK A01 T00251012  RH  077%=      5-min Rain = 0
KDO1 150548Z 30008KT 03/M01 A3015 RMK A01 T00261012  RH  076%=      5-min Rain = 0
KDO1 150549Z 30010KT 03/M01 A3015 RMK A01 T00261012  RH  076%=      5-min Rain = 0
KDO1 150550Z 31010KT 03/M01 A3015 RMK A01 T00261012  RH  076%=      5-min Rain = 0
KDO1 150551Z 30010KT 03/M01 A3015 RMK A01 T00271011  RH  076%=      5-min Rain = 0
KDO1 150552Z 31011KT 03/M01 A3015 RMK A01 T00281011  RH  076%=      5-min Rain = 0
KDO1 150553Z 31010KT 03/M01 A3015 RMK A01 T00291011  RH  075%=      5-min Rain = 0
KDO1 150554Z 30010KT 03/M01 A3015 RMK A01 T00301010  RH  075%=      5-min Rain = 0
KDO1 150555Z 30010KT 03/M01 A3015 RMK A01 T00301011  RH  075%=      5-min Rain = 0
KDO1 150556Z 30008KT 03/M01 A3015 RMK A01 T00311010  RH  074%=      5-min Rain = 0
KDO1 150557Z 31010KT 03/M01 A3015 RMK A01 T00301011  RH  075%=      5-min Rain = 0
KDO1 150558Z 30009KT 03/M01 A3015 RMK A01 T00301011  RH  075%=      5-min Rain = 0
KDO1 150559Z 31010KT 03/M01 A3015 RMK A01 T00301011  RH  074%=      5-min Rain = 0

Page generated in 0.1259 seconds.